2016 Cux-Wetter.de -Die Nutzung der Wetterdaten nur mit ausdrcklicher Genehmigung
Wetterdaten: Sonntag, 12.03.2017
Datum Zeit Temp. A. Feuchte A. Luftdruck Regen Wind Richtung Richtung Sonnenschein Solar Taupunkt Windchill Windben
12.03.2017 00:00 4,3 C 88 % 1021,0 hPa 0,0 l/m 4,6 km/h (1 Bft) SO 134 0 min 0 W/m 2,5 C 4,3 C 11,3 km/h (2 Bft)
12.03.2017 00:03 4,3 C 88 % 1021,1 hPa 0,0 l/m 2,3 km/h (1 Bft) SO 141 0 min 0 W/m 2,5 C 4,3 C 6,4 km/h (2 Bft)
12.03.2017 00:06 4,2 C 88 % 1021,1 hPa 0,0 l/m 2,5 km/h (1 Bft) S-SO 148 0 min 0 W/m 2,4 C 4,2 C 4,8 km/h (1 Bft)
12.03.2017 00:09 4,2 C 89 % 1021,1 hPa 0,0 l/m 3,7 km/h (1 Bft) SO 127 0 min 0 W/m 2,6 C 4,2 C 12,9 km/h (3 Bft)
12.03.2017 00:12 4,1 C 89 % 1021,1 hPa 0,0 l/m 3,4 km/h (1 Bft) SO 146 0 min 0 W/m 2,5 C 4,1 C 9,7 km/h (2 Bft)
12.03.2017 00:15 4,2 C 89 % 1021,1 hPa 0,0 l/m 3,9 km/h (1 Bft) O-SO 117 0 min 0 W/m 2,6 C 4,2 C 9,7 km/h (2 Bft)
12.03.2017 00:18 4,2 C 89 % 1021,2 hPa 0,0 l/m 2,7 km/h (1 Bft) O-NO 76 0 min 0 W/m 2,6 C 4,2 C 9,7 km/h (2 Bft)
12.03.2017 00:21 4,1 C 89 % 1021,2 hPa 0,0 l/m 3,2 km/h (1 Bft) O-NO 63 0 min 0 W/m 2,5 C 4,1 C 9,7 km/h (2 Bft)
12.03.2017 00:24 4,1 C 89 % 1021,2 hPa 0,0 l/m 3,7 km/h (1 Bft) O-NO 65 0 min 0 W/m 2,5 C 4,1 C 6,4 km/h (2 Bft)
12.03.2017 00:27 4,0 C 90 % 1021,1 hPa 0,0 l/m 2,4 km/h (1 Bft) SO 124 0 min 0 W/m 2,5 C 4,0 C 4,8 km/h (1 Bft)
12.03.2017 00:30 4,0 C 90 % 1021,2 hPa 0,0 l/m 2,7 km/h (1 Bft) O-NO 65 0 min 0 W/m 2,5 C 4,0 C 6,4 km/h (2 Bft)
12.03.2017 00:33 3,9 C 90 % 1021,2 hPa 0,0 l/m 3,1 km/h (1 Bft) O 91 0 min 0 W/m 2,4 C 3,9 C 6,4 km/h (2 Bft)
12.03.2017 00:36 3,8 C 90 % 1021,1 hPa 0,0 l/m 4,9 km/h (1 Bft) O-SO 108 0 min 0 W/m 2,3 C 3,8 C 11,3 km/h (2 Bft)
12.03.2017 00:39 3,8 C 91 % 1021,1 hPa 0,0 l/m 4,1 km/h (1 Bft) O-SO 117 0 min 0 W/m 2,5 C 3,8 C 9,7 km/h (2 Bft)
12.03.2017 00:42 3,8 C 91 % 1021,1 hPa 0,0 l/m 4,9 km/h (1 Bft) O-NO 77 0 min 0 W/m 2,5 C 3,8 C 12,9 km/h (3 Bft)
12.03.2017 00:45 3,8 C 91 % 1021,2 hPa 0,0 l/m 3,2 km/h (1 Bft) N 5 0 min 0 W/m 2,5 C 3,8 C 9,7 km/h (2 Bft)
12.03.2017 00:48 3,8 C 91 % 1021,2 hPa 0,0 l/m 3,9 km/h (1 Bft) O 83 0 min 0 W/m 2,5 C 3,8 C 11,3 km/h (2 Bft)
12.03.2017 00:51 3,8 C 91 % 1021,1 hPa 0,0 l/m 4,2 km/h (1 Bft) O 80 0 min 0 W/m 2,5 C 3,8 C 9,7 km/h (2 Bft)
12.03.2017 00:54 3,7 C 91 % 1021,2 hPa 0,0 l/m 2,5 km/h (1 Bft) N-NO 26 0 min 0 W/m 2,4 C 3,7 C 4,8 km/h (1 Bft)
12.03.2017 00:57 3,7 C 92 % 1021,2 hPa 0,0 l/m 3,3 km/h (1 Bft) NO 42 0 min 0 W/m 2,5 C 3,7 C 6,4 km/h (2 Bft)
12.03.2017 01:00 3,7 C 91 % 1021,2 hPa 0,0 l/m 3,4 km/h (1 Bft) S 183 0 min 0 W/m 2,4 C 3,7 C 8,0 km/h (2 Bft)
12.03.2017 01:03 3,6 C 92 % 1021,2 hPa 0,0 l/m 4,4 km/h (1 Bft) NO 56 0 min 0 W/m 2,4 C 3,6 C 9,7 km/h (2 Bft)
12.03.2017 01:06 3,6 C 92 % 1021,2 hPa 0,0 l/m 3,5 km/h (1 Bft) NO 49 0 min 0 W/m 2,4 C 3,6 C 11,3 km/h (2 Bft)
12.03.2017 01:09 3,6 C 92 % 1021,2 hPa 0,0 l/m 2,2 km/h (1 Bft) O 98 0 min 0 W/m 2,4 C 3,6 C 8,0 km/h (2 Bft)
12.03.2017 01:12 3,6 C 92 % 1021,2 hPa 0,0 l/m 2,9 km/h (1 Bft) O 98 0 min 0 W/m 2,4 C 3,6 C 6,4 km/h (2 Bft)
12.03.2017 01:15 3,6 C 92 % 1021,2 hPa 0,0 l/m 2,3 km/h (1 Bft) O-SO 115 0 min 0 W/m 2,4 C 3,6 C 4,8 km/h (1 Bft)
12.03.2017 01:18 3,5 C 92 % 1021,1 hPa 0,0 l/m 4,5 km/h (1 Bft) O 86 0 min 0 W/m 2,3 C 3,5 C 6,4 km/h (2 Bft)
12.03.2017 01:21 3,4 C 92 % 1021,2 hPa 0,0 l/m 4,0 km/h (1 Bft) O 101 0 min 0 W/m 2,2 C 3,4 C 9,7 km/h (2 Bft)
12.03.2017 01:24 3,4 C 92 % 1021,2 hPa 0,0 l/m 4,4 km/h (1 Bft) SO 128 0 min 0 W/m 2,2 C 3,4 C 9,7 km/h (2 Bft)
12.03.2017 01:27 3,4 C 93 % 1021,2 hPa 0,0 l/m 3,5 km/h (1 Bft) O-NO 65 0 min 0 W/m 2,4 C 3,4 C 8,0 km/h (2 Bft)
12.03.2017 01:30 3,4 C 93 % 1021,2 hPa 0,0 l/m 2,2 km/h (1 Bft) O-NO 69 0 min 0 W/m 2,4 C 3,4 C 3,2 km/h (1 Bft)
12.03.2017 01:33 3,4 C 93 % 1021,2 hPa 0,0 l/m 3,7 km/h (1 Bft) O 79 0 min 0 W/m 2,4 C 3,4 C 8,0 km/h (2 Bft)
12.03.2017 01:36 3,4 C 93 % 1021,2 hPa 0,0 l/m 3,8 km/h (1 Bft) SO 128 0 min 0 W/m 2,4 C 3,4 C 9,7 km/h (2 Bft)
12.03.2017 01:39 3,4 C 93 % 1021,2 hPa 0,0 l/m 4,5 km/h (1 Bft) O 100 0 min 0 W/m 2,4 C 3,4 C 6,4 km/h (2 Bft)
12.03.2017 01:42 3,3 C 93 % 1021,2 hPa 0,0 l/m 3,5 km/h (1 Bft) NO 50 0 min 0 W/m 2,3 C 3,3 C 6,4 km/h (2 Bft)
12.03.2017 01:45 3,3 C 93 % 1021,1 hPa 0,0 l/m 5,6 km/h (2 Bft) O 97 0 min 0 W/m 2,3 C 3,3 C 11,3 km/h (2 Bft)
12.03.2017 01:48 3,3 C 93 % 1021,1 hPa 0,0 l/m 3,7 km/h (1 Bft) O-SO 111 0 min 0 W/m 2,3 C 3,3 C 11,3 km/h (2 Bft)
12.03.2017 01:51 3,3 C 93 % 1021,2 hPa 0,0 l/m 3,2 km/h (1 Bft) O 81 0 min 0 W/m 2,3 C 3,3 C 6,4 km/h (2 Bft)
12.03.2017 01:54 3,3 C 93 % 1021,1 hPa 0,0 l/m 3,2 km/h (1 Bft) SO 144 0 min 0 W/m 2,3 C 3,3 C 12,9 km/h (3 Bft)
12.03.2017 01:57 3,3 C 93 % 1021,1 hPa 0,0 l/m 4,8 km/h (1 Bft) NO 39 0 min 0 W/m 2,3 C 3,3 C 11,3 km/h (2 Bft)
12.03.2017 02:00 3,3 C 93 % 1021,1 hPa 0,0 l/m 4,2 km/h (1 Bft) O-SO 119 0 min 0 W/m 2,3 C 3,3 C 9,7 km/h (2 Bft)
12.03.2017 02:03 3,3 C 93 % 1021,0 hPa 0,0 l/m 3,2 km/h (1 Bft) O-NO 65 0 min 0 W/m 2,3 C 3,3 C 9,7 km/h (2 Bft)
12.03.2017 02:06 3,3 C 93 % 1021,0 hPa 0,0 l/m 4,0 km/h (1 Bft) O-SO 109 0 min 0 W/m 2,3 C 3,3 C 9,7 km/h (2 Bft)
12.03.2017 02:09 3,3 C 93 % 1021,0 hPa 0,0 l/m 3,4 km/h (1 Bft) O-NO 72 0 min 0 W/m 2,3 C 3,3 C 8,0 km/h (2 Bft)
12.03.2017 02:12 3,2 C 93 % 1021,0 hPa 0,0 l/m 4,5 km/h (1 Bft) O-SO 105 0 min 0 W/m 2,2 C 3,2 C 9,7 km/h (2 Bft)
12.03.2017 02:15 3,2 C 93 % 1020,9 hPa 0,0 l/m 2,9 km/h (1 Bft) SO 142 0 min 0 W/m 2,2 C 3,2 C 6,4 km/h (2 Bft)
12.03.2017 02:18 3,3 C 93 % 1020,9 hPa 0,0 l/m 3,7 km/h (1 Bft) O 80 0 min 0 W/m 2,3 C 3,3 C 12,9 km/h (3 Bft)
12.03.2017 02:21 3,2 C 93 % 1020,9 hPa 0,0 l/m 3,0 km/h (1 Bft) O-SO 103 0 min 0 W/m 2,2 C 3,2 C 8,0 km/h (2 Bft)
12.03.2017 02:24 3,2 C 94 % 1020,9 hPa 0,0 l/m 4,3 km/h (1 Bft) O-SO 105 0 min 0 W/m 2,3 C 3,2 C 12,9 km/h (3 Bft)
12.03.2017 02:27 3,2 C 94 % 1020,9 hPa 0,0 l/m 4,1 km/h (1 Bft) O-SO 118 0 min 0 W/m 2,3 C 3,2 C 11,3 km/h (2 Bft)
12.03.2017 02:30 3,3 C 94 % 1020,9 hPa 0,0 l/m 3,4 km/h (1 Bft) N-NO 29 0 min 0 W/m 2,4 C 3,3 C 8,0 km/h (2 Bft)
12.03.2017 02:33 3,3 C 94 % 1020,9 hPa 0,0 l/m 2,7 km/h (1 Bft) O-NO 69 0 min 0 W/m 2,4 C 3,3 C 4,8 km/h (1 Bft)
12.03.2017 02:36 3,3 C 93 % 1020,9 hPa 0,0 l/m 4,6 km/h (1 Bft) S-SO 148 0 min 0 W/m 2,3 C 3,3 C 11,3 km/h (2 Bft)
12.03.2017 02:39 3,3 C 93 % 1020,8 hPa 0,0 l/m 4,7 km/h (1 Bft) NW 313 0 min 0 W/m 2,3 C 3,3 C 12,9 km/h (3 Bft)
12.03.2017 02:42 3,3 C 93 % 1020,9 hPa 0,0 l/m 4,7 km/h (1 Bft) O-SO 117 0 min 0 W/m 2,3 C 3,3 C 14,5 km/h (3 Bft)
12.03.2017 02:45 3,3 C 93 % 1020,9 hPa 0,0 l/m 2,5 km/h (1 Bft) O 84 0 min 0 W/m 2,3 C 3,3 C 6,4 km/h (2 Bft)
12.03.2017 02:48 3,3 C 93 % 1020,9 hPa 0,0 l/m 3,8 km/h (1 Bft) O-NO 76 0 min 0 W/m 2,3 C 3,3 C 9,7 km/h (2 Bft)
12.03.2017 02:51 3,2 C 93 % 1020,8 hPa 0,0 l/m 2,9 km/h (1 Bft) O 90 0 min 0 W/m 2,2 C 3,2 C 6,4 km/h (2 Bft)
12.03.2017 02:54 3,2 C 93 % 1020,8 hPa 0,0 l/m 2,5 km/h (1 Bft) O-SO 109 0 min 0 W/m 2,2 C 3,2 C 6,4 km/h (2 Bft)
12.03.2017 02:57 3,2 C 93 % 1020,8 hPa 0,0 l/m 3,1 km/h (1 Bft) O-SO 103 0 min 0 W/m 2,2 C 3,2 C 6,4 km/h (2 Bft)
12.03.2017 03:00 3,2 C 93 % 1020,8 hPa 0,0 l/m 4,4 km/h (1 Bft) O-NO 65 0 min 0 W/m 2,2 C 3,2 C 9,7 km/h (2 Bft)
12.03.2017 03:03 3,2 C 93 % 1020,8 hPa 0,0 l/m 3,4 km/h (1 Bft) SO 132 0 min 0 W/m 2,2 C 3,2 C 8,0 km/h (2 Bft)
12.03.2017 03:06 3,1 C 93 % 1020,8 hPa 0,0 l/m 3,1 km/h (1 Bft) SO 135 0 min 0 W/m 2,1 C 3,1 C 9,7 km/h (2 Bft)
12.03.2017 03:09 3,1 C 93 % 1020,8 hPa 0,0 l/m 4,7 km/h (1 Bft) O-NO 67 0 min 0 W/m 2,1 C 3,1 C 11,3 km/h (2 Bft)
12.03.2017 03:12 3,1 C 93 % 1020,7 hPa 0,0 l/m 2,4 km/h (1 Bft) NO 45 0 min 0 W/m 2,1 C 3,1 C 9,7 km/h (2 Bft)
12.03.2017 03:15 3,1 C 93 % 1020,6 hPa 0,0 l/m 6,3 km/h (2 Bft) O 83 0 min 0 W/m 2,1 C 3,1 C 17,7 km/h (3 Bft)
12.03.2017 03:18 3,1 C 93 % 1020,6 hPa 0,0 l/m 3,5 km/h (1 Bft) O-SO 115 0 min 0 W/m 2,1 C 3,1 C 9,7 km/h (2 Bft)
12.03.2017 03:21 3,1 C 93 % 1020,6 hPa 0,0 l/m 4,9 km/h (1 Bft) SO 145 0 min 0 W/m 2,1 C 3,1 C 11,3 km/h (2 Bft)
12.03.2017 03:24 3,1 C 93 % 1020,6 hPa 0,0 l/m 2,9 km/h (1 Bft) O 96 0 min 0 W/m 2,1 C 3,1 C 9,7 km/h (2 Bft)
12.03.2017 03:27 3,1 C 93 % 1020,6 hPa 0,0 l/m 4,8 km/h (1 Bft) O-SO 123 0 min 0 W/m 2,1 C 3,1 C 11,3 km/h (2 Bft)
12.03.2017 03:30 3,1 C 93 % 1020,5 hPa 0,0 l/m 5,4 km/h (2 Bft) SO 140 0 min 0 W/m 2,1 C 3,1 C 12,9 km/h (3 Bft)
12.03.2017 03:33 3,1 C 93 % 1020,5 hPa 0,0 l/m 2,3 km/h (1 Bft) SO 138 0 min 0 W/m 2,1 C 3,1 C 11,3 km/h (2 Bft)
12.03.2017 03:36 3,0 C 93 % 1020,5 hPa 0,0 l/m 3,6 km/h (1 Bft) S-SO 150 0 min 0 W/m 2,0 C 3,0 C 9,7 km/h (2 Bft)
12.03.2017 03:39 3,0 C 94 % 1020,5 hPa 0,0 l/m 3,3 km/h (1 Bft) SO 139 0 min 0 W/m 2,1 C 3,0 C 8,0 km/h (2 Bft)
12.03.2017 03:42 3,0 C 94 % 1020,4 hPa 0,0 l/m 3,1 km/h (1 Bft) O-SO 121 0 min 0 W/m 2,1 C 3,0 C 6,4 km/h (2 Bft)
12.03.2017 03:45 2,9 C 94 % 1020,4 hPa 0,0 l/m 4,3 km/h (1 Bft) S 178 0 min 0 W/m 2,0 C 2,9 C 9,7 km/h (2 Bft)
12.03.2017 03:48 3,0 C 94 % 1020,4 hPa 0,0 l/m 4,7 km/h (1 Bft) S-SO 162 0 min 0 W/m 2,1 C 3,0 C 9,7 km/h (2 Bft)
12.03.2017 03:51 3,1 C 94 % 1020,4 hPa 0,0 l/m 3,9 km/h (1 Bft) O-SO 121 0 min 0 W/m 2,2 C 3,1 C 12,9 km/h (3 Bft)
12.03.2017 03:54 3,0 C 94 % 1020,4 hPa 0,0 l/m 3,5 km/h (1 Bft) O-SO 110 0 min 0 W/m 2,1 C 3,0 C 9,7 km/h (2 Bft)
12.03.2017 03:57 3,1 C 94 % 1020,3 hPa 0,0 l/m 4,6 km/h (1 Bft) O-NO 71 0 min 0 W/m 2,2 C 3,1 C 11,3 km/h (2 Bft)
12.03.2017 04:00 3,0 C 94 % 1020,3 hPa 0,0 l/m 3,8 km/h (1 Bft) S-SO 159 0 min 0 W/m 2,1 C 3,0 C 11,3 km/h (2 Bft)
12.03.2017 04:03 3,1 C 94 % 1020,4 hPa 0,0 l/m 5,7 km/h (2 Bft) O-NO 64 0 min 0 W/m 2,2 C 3,1 C 12,9 km/h (3 Bft)
12.03.2017 04:06 3,1 C 94 % 1020,3 hPa 0,0 l/m 5,0 km/h (1 Bft) O-SO 122 0 min 0 W/m 2,2 C 3,1 C 9,7 km/h (2 Bft)
12.03.2017 04:09 3,0 C 94 % 1020,3 hPa 0,0 l/m 3,8 km/h (1 Bft) O-SO 111 0 min 0 W/m 2,1 C 3,0 C 8,0 km/h (2 Bft)
12.03.2017 04:12 3,1 C 94 % 1020,3 hPa 0,0 l/m 5,4 km/h (2 Bft) O-SO 109 0 min 0 W/m 2,2 C 3,1 C 14,5 km/h (3 Bft)
12.03.2017 04:15 3,0 C 94 % 1020,2 hPa 0,0 l/m 4,3 km/h (1 Bft) SO 144 0 min 0 W/m 2,1 C 3,0 C 14,5 km/h (3 Bft)
12.03.2017 04:18 3,0 C 94 % 1020,1 hPa 0,0 l/m 4,5 km/h (1 Bft) O-SO 112 0 min 0 W/m 2,1 C 3,0 C 8,0 km/h (2 Bft)
12.03.2017 04:21 3,0 C 94 % 1020,2 hPa 0,0 l/m 4,0 km/h (1 Bft) SO 126 0 min 0 W/m 2,1 C 3,0 C 11,3 km/h (2 Bft)
12.03.2017 04:24 2,9 C 94 % 1020,1 hPa 0,0 l/m 4,5 km/h (1 Bft) SO 137 0 min 0 W/m 2,0 C 2,9 C 14,5 km/h (3 Bft)
12.03.2017 04:27 2,9 C 94 % 1020,1 hPa 0,0 l/m 4,5 km/h (1 Bft) O 98 0 min 0 W/m 2,0 C 2,9 C 12,9 km/h (3 Bft)
12.03.2017 04:30 2,9 C 94 % 1020,1 hPa 0,0 l/m 4,7 km/h (1 Bft) O 79 0 min 0 W/m 2,0 C 2,9 C 11,3 km/h (2 Bft)
12.03.2017 04:33 2,9 C 94 % 1020,1 hPa 0,0 l/m 6,0 km/h (2 Bft) O 101 0 min 0 W/m 2,0 C 2,9 C 16,1 km/h (3 Bft)
12.03.2017 04:36 2,9 C 94 % 1020,1 hPa 0,0 l/m 5,3 km/h (1 Bft) SO 142 0 min 0 W/m 2,0 C 2,9 C 16,1 km/h (3 Bft)
12.03.2017 04:39 2,9 C 94 % 1020,1 hPa 0,0 l/m 5,8 km/h (2 Bft) S-SO 159 0 min 0 W/m 2,0 C 2,9 C 16,1 km/h (3 Bft)
12.03.2017 04:42 3,0 C 94 % 1020,1 hPa 0,0 l/m 6,0 km/h (2 Bft) O-SO 108 0 min 0 W/m 2,1 C 3,0 C 14,5 km/h (3 Bft)
12.03.2017 04:45 3,0 C 94 % 1020,1 hPa 0,0 l/m 4,4 km/h (1 Bft) SO 135 0 min 0 W/m 2,1 C 3,0 C 14,5 km/h (3 Bft)
12.03.2017 04:48 3,0 C 94 % 1020,1 hPa 0,0 l/m 6,7 km/h (2 Bft) SO 138 0 min 0 W/m 2,1 C 2,7 C 14,5 km/h (3 Bft)
12.03.2017 04:51 3,0 C 94 % 1020,0 hPa 0,0 l/m 5,6 km/h (2 Bft) O 96 0 min 0 W/m 2,1 C 3,0 C 14,5 km/h (3 Bft)
12.03.2017 04:54 3,0 C 94 % 1020,1 hPa 0,0 l/m 3,8 km/h (1 Bft) S-SO 153 0 min 0 W/m 2,1 C 3,0 C 11,3 km/h (2 Bft)
12.03.2017 04:57 2,9 C 94 % 1020,0 hPa 0,0 l/m 4,3 km/h (1 Bft) O 98 0 min 0 W/m 2,0 C 2,9 C 9,7 km/h (2 Bft)
12.03.2017 05:00 2,9 C 94 % 1020,0 hPa 0,0 l/m 5,2 km/h (1 Bft) SO 128 0 min 0 W/m 2,0 C 2,9 C 11,3 km/h (2 Bft)
12.03.2017 05:03 3,0 C 94 % 1020,0 hPa 0,0 l/m 7,2 km/h (2 Bft) O 86 0 min 0 W/m 2,1 C 2,2 C 16,1 km/h (3 Bft)
12.03.2017 05:06 3,0 C 94 % 1019,9 hPa 0,0 l/m 5,8 km/h (2 Bft) O 101 0 min 0 W/m 2,1 C 3,0 C 14,5 km/h (3 Bft)
12.03.2017 05:09 2,9 C 94 % 1019,9 hPa 0,0 l/m 3,9 km/h (1 Bft) O 86 0 min 0 W/m 2,0 C 2,9 C 12,9 km/h (3 Bft)
12.03.2017 05:12 2,9 C 93 % 1019,9 hPa 0,0 l/m 6,6 km/h (2 Bft) SO 139 0 min 0 W/m 1,9 C 2,7 C 17,7 km/h (3 Bft)
12.03.2017 05:15 2,9 C 94 % 1019,9 hPa 0,0 l/m 6,7 km/h (2 Bft) S-SO 157 0 min 0 W/m 2,0 C 2,6 C 12,9 km/h (3 Bft)
12.03.2017 05:18 2,9 C 94 % 1019,9 hPa 0,0 l/m 6,5 km/h (2 Bft) O 94 0 min 0 W/m 2,0 C 2,8 C 14,5 km/h (3 Bft)
12.03.2017 05:21 2,9 C 94 % 1019,9 hPa 0,0 l/m 6,3 km/h (2 Bft) O-SO 103 0 min 0 W/m 2,0 C 2,9 C 11,3 km/h (2 Bft)
12.03.2017 05:24 2,9 C 94 % 1019,9 hPa 0,0 l/m 5,6 km/h (2 Bft) SO 136 0 min 0 W/m 2,0 C 2,9 C 14,5 km/h (3 Bft)
12.03.2017 05:27 2,8 C 93 % 1019,9 hPa 0,0 l/m 6,1 km/h (2 Bft) SO 130 0 min 0 W/m 1,8 C 2,8 C 17,7 km/h (3 Bft)
12.03.2017 05:30 2,8 C 93 % 1019,8 hPa 0,0 l/m 7,3 km/h (2 Bft) SO 127 0 min 0 W/m 1,8 C 1,9 C 14,5 km/h (3 Bft)
12.03.2017 05:33 2,8 C 93 % 1019,8 hPa 0,0 l/m 6,9 km/h (2 Bft) SO 129 0 min 0 W/m 1,8 C 2,3 C 17,7 km/h (3 Bft)
12.03.2017 05:36 2,8 C 94 % 1019,8 hPa 0,0 l/m 8,6 km/h (2 Bft) SO 126 0 min 0 W/m 1,9 C 0,8 C 14,5 km/h (3 Bft)
12.03.2017 05:39 2,8 C 94 % 1019,9 hPa 0,0 l/m 4,7 km/h (1 Bft) O-SO 121 0 min 0 W/m 1,9 C 2,8 C 9,7 km/h (2 Bft)
12.03.2017 05:42 2,8 C 93 % 1019,8 hPa 0,0 l/m 4,7 km/h (1 Bft) NO 44 0 min 0 W/m 1,8 C 2,8 C 16,1 km/h (3 Bft)
12.03.2017 05:45 2,8 C 94 % 1019,8 hPa 0,0 l/m 6,7 km/h (2 Bft) O-SO 109 0 min 0 W/m 1,9 C 2,5 C 19,3 km/h (3 Bft)
12.03.2017 05:48 2,8 C 93 % 1019,7 hPa 0,0 l/m 6,0 km/h (2 Bft) SO 134 0 min 0 W/m 1,8 C 2,8 C 16,1 km/h (3 Bft)
12.03.2017 05:51 2,8 C 94 % 1019,7 hPa 0,0 l/m 6,0 km/h (2 Bft) S-SO 155 0 min 0 W/m 1,9 C 2,8 C 14,5 km/h (3 Bft)
12.03.2017 05:54 2,8 C 93 % 1019,8 hPa 0,0 l/m 5,9 km/h (2 Bft) O 99 0 min 0 W/m 1,8 C 2,8 C 14,5 km/h (3 Bft)
12.03.2017 05:57 2,8 C 93 % 1019,8 hPa 0,0 l/m 6,1 km/h (2 Bft) SO 142 0 min 0 W/m 1,8 C 2,8 C 11,3 km/h (2 Bft)
12.03.2017 06:00 2,8 C 94 % 1019,7 hPa 0,0 l/m 5,8 km/h (2 Bft) O 82 0 min 0 W/m 1,9 C 2,8 C 14,5 km/h (3 Bft)
12.03.2017 06:03 2,8 C 94 % 1019,8 hPa 0,0 l/m 6,5 km/h (2 Bft) O-SO 119 0 min 0 W/m 1,9 C 2,7 C 12,9 km/h (3 Bft)
12.03.2017 06:06 2,8 C 94 % 1019,8 hPa 0,0 l/m 4,8 km/h (1 Bft) O-SO 102 0 min 0 W/m 1,9 C 2,8 C 14,5 km/h (3 Bft)
12.03.2017 06:09 2,8 C 93 % 1019,8 hPa 0,0 l/m 4,5 km/h (1 Bft) O-SO 119 0 min 0 W/m 1,8 C 2,8 C 16,1 km/h (3 Bft)
12.03.2017 06:12 2,8 C 94 % 1019,7 hPa 0,0 l/m 6,5 km/h (2 Bft) O-NO 78 0 min 0 W/m 1,9 C 2,7 C 17,7 km/h (3 Bft)
12.03.2017 06:15 2,8 C 94 % 1019,7 hPa 0,0 l/m 7,0 km/h (2 Bft) S-SO 150 0 min 0 W/m 1,9 C 2,2 C 19,3 km/h (3 Bft)
12.03.2017 06:18 2,8 C 94 % 1019,7 hPa 0,0 l/m 5,5 km/h (2 Bft) SO 140 0 min 0 W/m 1,9 C 2,8 C 11,3 km/h (2 Bft)
12.03.2017 06:21 2,9 C 94 % 1019,7 hPa 0,0 l/m 6,8 km/h (2 Bft) O-SO 109 0 min 0 W/m 2,0 C 2,5 C 14,5 km/h (3 Bft)
12.03.2017 06:24 2,9 C 93 % 1019,6 hPa 0,0 l/m 7,5 km/h (2 Bft) SO 136 0 min 0 W/m 1,9 C 1,9 C 16,1 km/h (3 Bft)
12.03.2017 06:27 2,9 C 94 % 1019,6 hPa 0,0 l/m 6,3 km/h (2 Bft) SO 133 0 min 0 W/m 2,0 C 2,9 C 17,7 km/h (3 Bft)
12.03.2017 06:30 2,9 C 93 % 1019,6 hPa 0,0 l/m 5,8 km/h (2 Bft) O-SO 109 0 min 0 W/m 1,9 C 2,9 C 17,7 km/h (3 Bft)
12.03.2017 06:33 2,9 C 93 % 1019,5 hPa 0,0 l/m 6,5 km/h (2 Bft) O-NO 72 0 min 0 W/m 1,9 C 2,8 C 17,7 km/h (3 Bft)
12.03.2017 06:36 2,8 C 93 % 1019,5 hPa 0,0 l/m 4,7 km/h (1 Bft) O-NO 64 0 min 0 W/m 1,8 C 2,8 C 14,5 km/h (3 Bft)
12.03.2017 06:39 2,8 C 93 % 1019,5 hPa 0,0 l/m 4,2 km/h (1 Bft) O 100 0 min 0 W/m 1,8 C 2,8 C 8,0 km/h (2 Bft)
12.03.2017 06:42 2,8 C 93 % 1019,6 hPa 0,0 l/m 7,2 km/h (2 Bft) O 86 0 min 0 W/m 1,8 C 2,0 C 17,7 km/h (3 Bft)
12.03.2017 06:45 2,8 C 93 % 1019,5 hPa 0,0 l/m 4,8 km/h (1 Bft) SO 136 0 min 0 W/m 1,8 C 2,8 C 12,9 km/h (3 Bft)
12.03.2017 06:48 2,8 C 93 % 1019,4 hPa 0,0 l/m 4,9 km/h (1 Bft) SO 130 0 min 0 W/m 1,8 C 2,8 C 16,1 km/h (3 Bft)
12.03.2017 06:51 2,7 C 93 % 1019,6 hPa 0,0 l/m 5,6 km/h (2 Bft) O-NO 69 0 min 0 W/m 1,7 C 2,7 C 12,9 km/h (3 Bft)
12.03.2017 06:54 2,7 C 93 % 1019,6 hPa 0,0 l/m 6,6 km/h (2 Bft) O-SO 107 0 min 0 W/m 1,7 C 2,5 C 16,1 km/h (3 Bft)
12.03.2017 06:57 2,6 C 94 % 1019,6 hPa 0,0 l/m 4,6 km/h (1 Bft) O 94 0 min 0 W/m 1,7 C 2,6 C 12,9 km/h (3 Bft)
12.03.2017 07:00 2,7 C 94 % 1019,5 hPa 0,0 l/m 4,1 km/h (1 Bft) O 92 0 min 0 W/m 1,8 C 2,7 C 8,0 km/h (2 Bft)
12.03.2017 07:03 2,7 C 94 % 1019,5 hPa 0,0 l/m 5,0 km/h (1 Bft) SO 130 0 min 0 W/m 1,8 C 2,7 C 11,3 km/h (2 Bft)
12.03.2017 07:06 2,7 C 94 % 1019,5 hPa 0,0 l/m 7,5 km/h (2 Bft) SO 130 0 min 5 W/m 1,8 C 1,6 C 16,1 km/h (3 Bft)
12.03.2017 07:09 2,7 C 94 % 1019,5 hPa 0,0 l/m 6,1 km/h (2 Bft) O 96 0 min 5 W/m 1,8 C 2,7 C 14,5 km/h (3 Bft)
12.03.2017 07:12 2,7 C 94 % 1019,4 hPa 0,0 l/m 7,5 km/h (2 Bft) S-SO 150 0 min 7 W/m 1,8 C 1,6 C 16,1 km/h (3 Bft)
12.03.2017 07:15 2,7 C 94 % 1019,4 hPa 0,0 l/m 6,8 km/h (2 Bft) SO 133 0 min 7 W/m 1,8 C 2,3 C 16,1 km/h (3 Bft)
12.03.2017 07:18 2,7 C 94 % 1019,4 hPa 0,0 l/m 6,6 km/h (2 Bft) O 99 0 min 9 W/m 1,8 C 2,5 C 20,9 km/h (4 Bft)
12.03.2017 07:21 2,6 C 94 % 1019,4 hPa 0,0 l/m 5,9 km/h (2 Bft) O-NO 57 0 min 9 W/m 1,7 C 2,6 C 12,9 km/h (3 Bft)
12.03.2017 07:24 2,6 C 94 % 1019,4 hPa 0,0 l/m 8,9 km/h (2 Bft) S-SO 157 0 min 11 W/m 1,7 C 0,3 C 22,5 km/h (4 Bft)
12.03.2017 07:27 2,6 C 94 % 1019,4 hPa 0,0 l/m 5,6 km/h (2 Bft) O-SO 108 0 min 11 W/m 1,7 C 2,6 C 12,9 km/h (3 Bft)
12.03.2017 07:30 2,6 C 94 % 1019,4 hPa 0,0 l/m 5,3 km/h (1 Bft) O-SO 112 0 min 12 W/m 1,7 C 2,6 C 12,9 km/h (3 Bft)
12.03.2017 07:33 2,6 C 94 % 1019,4 hPa 0,0 l/m 5,1 km/h (1 Bft) O 98 0 min 12 W/m 1,7 C 2,6 C 14,5 km/h (3 Bft)
12.03.2017 07:36 2,6 C 94 % 1019,4 hPa 0,0 l/m 6,1 km/h (2 Bft) O-NO 78 0 min 14 W/m 1,7 C 2,6 C 16,1 km/h (3 Bft)
12.03.2017 07:39 2,6 C 94 % 1019,4 hPa 0,0 l/m 4,9 km/h (1 Bft) O 88 0 min 16 W/m 1,7 C 2,6 C 16,1 km/h (3 Bft)
12.03.2017 07:42 2,6 C 94 % 1019,4 hPa 0,0 l/m 8,9 km/h (2 Bft) O-SO 108 0 min 18 W/m 1,7 C 0,3 C 19,3 km/h (3 Bft)
12.03.2017 07:45 2,7 C 94 % 1019,4 hPa 0,0 l/m 5,7 km/h (2 Bft) O 90 0 min 18 W/m 1,8 C 2,7 C 16,1 km/h (3 Bft)
12.03.2017 07:48 2,7 C 94 % 1019,4 hPa 0,0 l/m 6,4 km/h (2 Bft) N-NO 18 0 min 19 W/m 1,8 C 2,7 C 17,7 km/h (3 Bft)
12.03.2017 07:51 2,7 C 94 % 1019,3 hPa 0,0 l/m 5,6 km/h (2 Bft) O 92 0 min 21 W/m 1,8 C 2,7 C 11,3 km/h (2 Bft)
12.03.2017 07:54 2,8 C 94 % 1019,3 hPa 0,0 l/m 8,1 km/h (2 Bft) SO 127 0 min 23 W/m 1,9 C 1,2 C 20,9 km/h (4 Bft)
12.03.2017 07:57 2,8 C 94 % 1019,3 hPa 0,0 l/m 8,1 km/h (2 Bft) O-SO 113 0 min 23 W/m 1,9 C 1,2 C 16,1 km/h (3 Bft)
12.03.2017 08:00 2,9 C 94 % 1019,3 hPa 0,0 l/m 6,9 km/h (2 Bft) SO 130 0 min 25 W/m 2,0 C 2,4 C 16,1 km/h (3 Bft)
12.03.2017 08:03 2,9 C 94 % 1019,3 hPa 0,0 l/m 7,4 km/h (2 Bft) O-SO 106 0 min 26 W/m 2,0 C 1,9 C 16,1 km/h (3 Bft)
12.03.2017 08:06 2,9 C 94 % 1019,3 hPa 0,0 l/m 5,7 km/h (2 Bft) S-SW 211 0 min 26 W/m 2,0 C 2,9 C 11,3 km/h (2 Bft)
12.03.2017 08:09 3,0 C 94 % 1019,3 hPa 0,0 l/m 7,7 km/h (2 Bft) O-SO 121 0 min 28 W/m 2,1 C 1,8 C 20,9 km/h (4 Bft)
12.03.2017 08:12 3,1 C 94 % 1019,3 hPa 0,0 l/m 6,3 km/h (2 Bft) O-SO 107 0 min 28 W/m 2,2 C 3,1 C 16,1 km/h (3 Bft)
12.03.2017 08:15 3,1 C 94 % 1019,4 hPa 0,0 l/m 6,0 km/h (2 Bft) O-SO 118 0 min 30 W/m 2,2 C 3,1 C 12,9 km/h (3 Bft)
12.03.2017 08:18 3,2 C 94 % 1019,3 hPa 0,0 l/m 7,7 km/h (2 Bft) O-SO 105 0 min 30 W/m 2,3 C 2,0 C 17,7 km/h (3 Bft)
12.03.2017 08:21 3,2 C 93 % 1019,4 hPa 0,0 l/m 6,5 km/h (2 Bft) O 90 0 min 35 W/m 2,2 C 3,1 C 14,5 km/h (3 Bft)
12.03.2017 08:24 3,3 C 93 % 1019,3 hPa 0,0 l/m 8,8 km/h (2 Bft) O-SO 109 0 min 33 W/m 2,3 C 1,1 C 17,7 km/h (3 Bft)
12.03.2017 08:27 3,4 C 93 % 1019,3 hPa 0,0 l/m 6,4 km/h (2 Bft) O 100 0 min 49 W/m 2,4 C 3,4 C 17,7 km/h (3 Bft)
12.03.2017 08:30 3,4 C 93 % 1019,4 hPa 0,0 l/m 10,2 km/h (2 Bft) O-SO 119 0 min 42 W/m 2,4 C 0,2 C 20,9 km/h (4 Bft)
12.03.2017 08:33 3,6 C 93 % 1019,5 hPa 0,0 l/m 9,3 km/h (2 Bft) O 97 0 min 42 W/m 2,6 C 1,1 C 16,1 km/h (3 Bft)
12.03.2017 08:36 3,7 C 93 % 1019,4 hPa 0,0 l/m 6,8 km/h (2 Bft) O-NO 77 0 min 44 W/m 2,7 C 3,3 C 19,3 km/h (3 Bft)
12.03.2017 08:39 3,7 C 92 % 1019,4 hPa 0,0 l/m 6,5 km/h (2 Bft) O 100 0 min 47 W/m 2,5 C 3,6 C 14,5 km/h (3 Bft)
12.03.2017 08:42 3,8 C 92 % 1019,4 hPa 0,0 l/m 5,1 km/h (1 Bft) SO 135 0 min 49 W/m 2,6 C 3,8 C 16,1 km/h (3 Bft)
12.03.2017 08:45 4,0 C 92 % 1019,5 hPa 0,0 l/m 5,7 km/h (2 Bft) SO 136 0 min 58 W/m 2,8 C 4,0 C 14,5 km/h (3 Bft)
12.03.2017 08:48 4,1 C 92 % 1019,4 hPa 0,0 l/m 9,4 km/h (2 Bft) S-SO 157 0 min 65 W/m 2,9 C 1,5 C 16,1 km/h (3 Bft)
12.03.2017 08:51 4,2 C 91 % 1019,5 hPa 0,0 l/m 8,3 km/h (2 Bft) O-SO 123 0 min 70 W/m 2,9 C 2,5 C 17,7 km/h (3 Bft)
12.03.2017 08:54 4,3 C 91 % 1019,6 hPa 0,0 l/m 8,8 km/h (2 Bft) O-SO 117 0 min 76 W/m 3,0 C 2,2 C 20,9 km/h (4 Bft)
12.03.2017 08:57 4,4 C 91 % 1019,5 hPa 0,0 l/m 5,6 km/h (2 Bft) S-SO 165 0 min 76 W/m 3,1 C 4,4 C 14,5 km/h (3 Bft)
12.03.2017 09:00 4,5 C 91 % 1019,6 hPa 0,0 l/m 4,3 km/h (1 Bft) S-SO 165 0 min 76 W/m 3,2 C 4,5 C 9,7 km/h (2 Bft)
12.03.2017 09:03 4,6 C 91 % 1019,6 hPa 0,0 l/m 6,4 km/h (2 Bft) O-SO 122 0 min 74 W/m 3,3 C 4,6 C 17,7 km/h (3 Bft)
12.03.2017 09:06 4,6 C 90 % 1019,6 hPa 0,0 l/m 7,0 km/h (2 Bft) O-NO 74 0 min 76 W/m 3,1 C 4,1 C 14,5 km/h (3 Bft)
12.03.2017 09:09 4,7 C 90 % 1019,6 hPa 0,0 l/m 7,1 km/h (2 Bft) SO 146 0 min 79 W/m 3,2 C 4,1 C 14,5 km/h (3 Bft)
12.03.2017 09:12 4,7 C 90 % 1019,6 hPa 0,0 l/m 6,7 km/h (2 Bft) O-NO 72 0 min 83 W/m 3,2 C 4,4 C 17,7 km/h (3 Bft)
12.03.2017 09:15 4,7 C 90 % 1019,6 hPa 0,0 l/m 8,5 km/h (2 Bft) N-NO 17 0 min 88 W/m 3,2 C 2,9 C 22,5 km/h (4 Bft)
12.03.2017 09:18 4,8 C 90 % 1019,7 hPa 0,0 l/m 6,9 km/h (2 Bft) O-SO 103 0 min 90 W/m 3,3 C 4,4 C 17,7 km/h (3 Bft)
12.03.2017 09:21 4,9 C 90 % 1019,6 hPa 0,0 l/m 7,4 km/h (2 Bft) O-NO 69 0 min 93 W/m 3,4 C 4,0 C 16,1 km/h (3 Bft)
12.03.2017 09:24 4,9 C 90 % 1019,6 hPa 0,0 l/m 7,8 km/h (2 Bft) S 175 0 min 97 W/m 3,4 C 3,7 C 19,3 km/h (3 Bft)
12.03.2017 09:27 5,0 C 89 % 1019,7 hPa 0,0 l/m 6,1 km/h (2 Bft) O 100 0 min 105 W/m 3,3 C 5,0 C 16,1 km/h (3 Bft)
12.03.2017 09:30 5,1 C 89 % 1019,7 hPa 0,0 l/m 10,0 km/h (2 Bft) O-NO 76 0 min 111 W/m 3,4 C 2,2 C 22,5 km/h (4 Bft)
12.03.2017 09:33 5,2 C 89 % 1019,6 hPa 0,0 l/m 7,5 km/h (2 Bft) S-SW 198 0 min 118 W/m 3,5 C 4,2 C 14,5 km/h (3 Bft)
12.03.2017 09:36 5,3 C 89 % 1019,6 hPa 0,0 l/m 7,6 km/h (2 Bft) O 100 0 min 125 W/m 3,6 C 4,3 C 14,5 km/h (3 Bft)
12.03.2017 09:39 5,4 C 89 % 1019,5 hPa 0,0 l/m 11,1 km/h (2 Bft) O-NO 63 0 min 134 W/m 3,7 C 1,8 C 20,9 km/h (4 Bft)
12.03.2017 09:42 5,4 C 88 % 1019,6 hPa 0,0 l/m 9,9 km/h (2 Bft) SO 136 0 min 139 W/m 3,6 C 2,6 C 20,9 km/h (4 Bft)
12.03.2017 09:45 5,4 C 88 % 1019,6 hPa 0,0 l/m 8,5 km/h (2 Bft) S-SO 165 0 min 144 W/m 3,6 C 3,6 C 20,9 km/h (4 Bft)
12.03.2017 09:48 5,6 C 87 % 1019,6 hPa 0,0 l/m 8,3 km/h (2 Bft) SO 138 0 min 148 W/m 3,6 C 4,0 C 19,3 km/h (3 Bft)
12.03.2017 09:51 5,7 C 87 % 1019,6 hPa 0,0 l/m 11,0 km/h (2 Bft) O 97 0 min 155 W/m 3,7 C 2,2 C 24,1 km/h (4 Bft)
12.03.2017 09:54 5,7 C 87 % 1019,6 hPa 0,0 l/m 9,3 km/h (2 Bft) O 88 0 min 160 W/m 3,7 C 3,3 C 16,1 km/h (3 Bft)
12.03.2017 09:57 5,8 C 87 % 1019,6 hPa 0,0 l/m 9,0 km/h (2 Bft) O-SO 121 0 min 165 W/m 3,8 C 3,7 C 19,3 km/h (3 Bft)
12.03.2017 10:00 5,9 C 86 % 1019,6 hPa 0,0 l/m 9,5 km/h (2 Bft) O-NO 70 0 min 169 W/m 3,7 C 3,4 C 19,3 km/h (3 Bft)
12.03.2017 10:03 6,0 C 87 % 1019,6 hPa 0,0 l/m 8,5 km/h (2 Bft) O-SO 118 0 min 172 W/m 4,0 C 4,3 C 19,3 km/h (3 Bft)
12.03.2017 10:06 6,1 C 86 % 1019,5 hPa 0,0 l/m 9,9 km/h (2 Bft) SO 128 0 min 172 W/m 3,9 C 3,4 C 25,7 km/h (4 Bft)
12.03.2017 10:09 6,1 C 86 % 1019,5 hPa 0,0 l/m 7,7 km/h (2 Bft) S 170 0 min 172 W/m 3,9 C 5,0 C 17,7 km/h (3 Bft)
12.03.2017 10:12 6,2 C 86 % 1019,5 hPa 0,0 l/m 5,5 km/h (2 Bft) N-NO 13 0 min 172 W/m 4,0 C 6,2 C 12,9 km/h (3 Bft)
12.03.2017 10:15 6,2 C 86 % 1019,6 hPa 0,0 l/m 8,4 km/h (2 Bft) SO 125 0 min 172 W/m 4,0 C 4,6 C 17,7 km/h (3 Bft)
12.03.2017 10:18 6,3 C 85 % 1019,6 hPa 0,0 l/m 6,6 km/h (2 Bft) O-SO 118 0 min 172 W/m 4,0 C 6,2 C 12,9 km/h (3 Bft)
12.03.2017 10:21 6,4 C 86 % 1019,6 hPa 0,0 l/m 9,5 km/h (2 Bft) SO 136 0 min 174 W/m 4,2 C 4,0 C 20,9 km/h (4 Bft)
12.03.2017 10:24 6,3 C 85 % 1019,6 hPa 0,0 l/m 8,1 km/h (2 Bft) O 90 0 min 176 W/m 4,0 C 4,9 C 17,7 km/h (3 Bft)
12.03.2017 10:27 6,4 C 85 % 1019,5 hPa 0,0 l/m 4,0 km/h (1 Bft) O-SO 111 0 min 179 W/m 4,1 C 6,4 C 9,7 km/h (2 Bft)
12.03.2017 10:30 6,6 C 85 % 1019,5 hPa 0,0 l/m 7,1 km/h (2 Bft) O-SO 119 0 min 181 W/m 4,3 C 6,0 C 16,1 km/h (3 Bft)
12.03.2017 10:33 6,7 C 85 % 1019,5 hPa 0,0 l/m 7,6 km/h (2 Bft) O-NO 72 0 min 185 W/m 4,4 C 5,7 C 17,7 km/h (3 Bft)
12.03.2017 10:36 6,7 C 84 % 1019,4 hPa 0,0 l/m 11,3 km/h (2 Bft) S-SO 157 0 min 188 W/m 4,2 C 3,1 C 24,1 km/h (4 Bft)
12.03.2017 10:39 6,7 C 84 % 1019,4 hPa 0,0 l/m 10,3 km/h (2 Bft) NO 51 0 min 190 W/m 4,2 C 3,8 C 19,3 km/h (3 Bft)
12.03.2017 10:42 6,9 C 84 % 1019,4 hPa 0,0 l/m 6,6 km/h (2 Bft) O-NO 74 0 min 190 W/m 4,4 C 6,8 C 19,3 km/h (3 Bft)
12.03.2017 10:45 7,0 C 84 % 1019,4 hPa 0,0 l/m 8,5 km/h (2 Bft) O-SO 108 0 min 190 W/m 4,5 C 5,3 C 16,1 km/h (3 Bft)
12.03.2017 10:48 7,1 C 83 % 1019,4 hPa 0,0 l/m 7,9 km/h (2 Bft) O 90 0 min 188 W/m 4,4 C 5,9 C 12,9 km/h (3 Bft)
12.03.2017 10:51 7,1 C 83 % 1019,4 hPa 0,0 l/m 8,9 km/h (2 Bft) SO 135 0 min 186 W/m 4,4 C 5,1 C 16,1 km/h (3 Bft)
12.03.2017 10:54 7,1 C 82 % 1019,4 hPa 0,0 l/m 9,8 km/h (2 Bft) S 169 0 min 186 W/m 4,2 C 4,5 C 22,5 km/h (4 Bft)
12.03.2017 10:57 7,2 C 82 % 1019,4 hPa 0,0 l/m 7,8 km/h (2 Bft) N-NO 24 0 min 188 W/m 4,3 C 6,1 C 16,1 km/h (3 Bft)
12.03.2017 11:00 7,3 C 83 % 1019,4 hPa 0,0 l/m 7,4 km/h (2 Bft) O-SO 120 0 min 192 W/m 4,6 C 6,5 C 27,4 km/h (5 Bft)
12.03.2017 11:03 7,4 C 82 % 1019,3 hPa 0,0 l/m 7,2 km/h (2 Bft) O-NO 59 0 min 195 W/m 4,5 C 6,8 C 27,4 km/h (5 Bft)
12.03.2017 11:06 7,6 C 81 % 1019,3 hPa 0,0 l/m 8,0 km/h (2 Bft) S-SO 162 0 min 200 W/m 4,6 C 6,3 C 19,3 km/h (3 Bft)
12.03.2017 11:09 7,6 C 81 % 1019,2 hPa 0,0 l/m 10,0 km/h (2 Bft) O-SO 113 0 min 206 W/m 4,6 C 4,9 C 27,4 km/h (5 Bft)
12.03.2017 11:12 7,6 C 80 % 1019,3 hPa 0,0 l/m 10,1 km/h (2 Bft) SO 125 0 min 213 W/m 4,4 C 4,9 C 16,1 km/h (3 Bft)
12.03.2017 11:15 7,7 C 81 % 1019,2 hPa 0,0 l/m 10,7 km/h (2 Bft) S-SO 149 0 min 216 W/m 4,7 C 4,6 C 25,7 km/h (4 Bft)
12.03.2017 11:18 7,7 C 80 % 1019,2 hPa 0,0 l/m 8,1 km/h (2 Bft) N-NO 30 0 min 221 W/m 4,5 C 6,4 C 22,5 km/h (4 Bft)
12.03.2017 11:21 7,8 C 80 % 1019,2 hPa 0,0 l/m 9,1 km/h (2 Bft) O 85 0 min 223 W/m 4,6 C 5,8 C 22,5 km/h (4 Bft)
12.03.2017 11:24 7,8 C 80 % 1019,2 hPa 0,0 l/m 5,9 km/h (2 Bft) N 355 0 min 232 W/m 4,6 C 7,8 C 12,9 km/h (3 Bft)
12.03.2017 11:27 7,8 C 78 % 1019,3 hPa 0,0 l/m 8,4 km/h (2 Bft) O-SO 106 0 min 237 W/m 4,2 C 6,2 C 22,5 km/h (4 Bft)
12.03.2017 11:30 7,8 C 79 % 1019,3 hPa 0,0 l/m 5,3 km/h (1 Bft) O 91 0 min 239 W/m 4,4 C 7,8 C 12,9 km/h (3 Bft)
12.03.2017 11:33 7,9 C 79 % 1019,2 hPa 0,0 l/m 8,7 km/h (2 Bft) SO 125 0 min 237 W/m 4,5 C 6,1 C 19,3 km/h (3 Bft)
12.03.2017 11:36 7,8 C 78 % 1019,3 hPa 0,0 l/m 8,4 km/h (2 Bft) O 94 0 min 237 W/m 4,2 C 6,2 C 19,3 km/h (3 Bft)
12.03.2017 11:39 7,8 C 79 % 1019,2 hPa 0,0 l/m 9,8 km/h (2 Bft) O 82 0 min 239 W/m 4,4 C 5,3 C 19,3 km/h (3 Bft)
12.03.2017 11:42 7,9 C 78 % 1019,2 hPa 0,0 l/m 8,6 km/h (2 Bft) W-SW 239 0 min 243 W/m 4,3 C 6,2 C 16,1 km/h (3 Bft)
12.03.2017 11:45 7,8 C 78 % 1019,2 hPa 0,0 l/m 10,0 km/h (2 Bft) O 101 0 min 244 W/m 4,2 C 5,2 C 25,7 km/h (4 Bft)
12.03.2017 11:48 7,8 C 78 % 1019,3 hPa 0,0 l/m 10,9 km/h (2 Bft) O 82 0 min 250 W/m 4,2 C 4,6 C 19,3 km/h (3 Bft)
12.03.2017 11:51 7,9 C 79 % 1019,2 hPa 0,0 l/m 6,9 km/h (2 Bft) O 91 0 min 257 W/m 4,5 C 7,5 C 16,1 km/h (3 Bft)
12.03.2017 11:54 8,2 C 79 % 1019,1 hPa 0,0 l/m 4,8 km/h (1 Bft) NO 47 0 min 255 W/m 4,8 C 8,2 C 16,1 km/h (3 Bft)
12.03.2017 11:57 8,2 C 78 % 1019,1 hPa 0,0 l/m 8,9 km/h (2 Bft) S-SW 202 0 min 257 W/m 4,6 C 6,3 C 16,1 km/h (3 Bft)
12.03.2017 12:00 8,3 C 78 % 1019,2 hPa 0,0 l/m 8,0 km/h (2 Bft) NO 42 0 min 255 W/m 4,7 C 7,1 C 16,1 km/h (3 Bft)
12.03.2017 12:03 8,4 C 78 % 1019,2 hPa 0,0 l/m 8,4 km/h (2 Bft) NO 50 0 min 251 W/m 4,8 C 6,9 C 20,9 km/h (4 Bft)
12.03.2017 12:06 8,4 C 77 % 1019,2 hPa 0,0 l/m 8,7 km/h (2 Bft) O 88 0 min 246 W/m 4,6 C 6,7 C 16,1 km/h (3 Bft)
12.03.2017 12:09 8,3 C 76 % 1019,1 hPa 0,0 l/m 10,0 km/h (2 Bft) NO 53 0 min 246 W/m 4,3 C 5,7 C 19,3 km/h (3 Bft)
12.03.2017 12:12 8,4 C 78 % 1019,1 hPa 0,0 l/m 5,6 km/h (2 Bft) SO 145 0 min 248 W/m 4,8 C 8,4 C 12,9 km/h (3 Bft)
12.03.2017 12:15 8,5 C 77 % 1019,0 hPa 0,0 l/m 8,2 km/h (2 Bft) S-SO 155 0 min 250 W/m 4,7 C 7,1 C 20,9 km/h (4 Bft)
12.03.2017 12:18 8,7 C 77 % 1019,0 hPa 0,0 l/m 8,2 km/h (2 Bft) O 98 0 min 255 W/m 4,9 C 7,3 C 17,7 km/h (3 Bft)
12.03.2017 12:21 8,8 C 78 % 1019,0 hPa 0,0 l/m 6,7 km/h (2 Bft) NO 52 0 min 258 W/m 5,2 C 8,6 C 19,3 km/h (3 Bft)
12.03.2017 12:24 8,9 C 79 % 1018,9 hPa 0,0 l/m 4,2 km/h (1 Bft) O-NO 71 0 min 276 W/m 5,5 C 8,9 C 8,0 km/h (2 Bft)
12.03.2017 12:27 9,2 C 79 % 1018,9 hPa 0,0 l/m 6,0 km/h (2 Bft) NO 36 0 min 292 W/m 5,8 C 9,2 C 12,9 km/h (3 Bft)
12.03.2017 12:30 9,2 C 78 % 1018,8 hPa 0,0 l/m 5,8 km/h (2 Bft) O-SO 105 3 min 390 W/m 5,6 C 9,2 C 11,3 km/h (2 Bft)
12.03.2017 12:33 9,3 C 78 % 1018,9 hPa 0,0 l/m 6,9 km/h (2 Bft) N 9 3 min 355 W/m 5,7 C 8,9 C 17,7 km/h (3 Bft)
12.03.2017 12:36 9,7 C 79 % 1018,8 hPa 0,0 l/m 4,4 km/h (1 Bft) O-SO 103 3 min 417 W/m 6,2 C 9,7 C 11,3 km/h (2 Bft)
12.03.2017 12:39 10,1 C 75 % 1018,8 hPa 0,0 l/m 7,8 km/h (2 Bft) S 177 0 min 288 W/m 5,9 C 9,1 C 22,5 km/h (4 Bft)
12.03.2017 12:42 9,7 C 73 % 1018,9 hPa 0,0 l/m 10,5 km/h (2 Bft) SO 131 3 min 308 W/m 5,1 C 7,0 C 22,5 km/h (4 Bft)
12.03.2017 12:45 9,7 C 73 % 1018,8 hPa 0,0 l/m 7,8 km/h (2 Bft) O 92 3 min 373 W/m 5,1 C 8,7 C 16,1 km/h (3 Bft)
12.03.2017 12:48 9,7 C 72 % 1018,8 hPa 0,0 l/m 10,8 km/h (2 Bft) S-SW 193 3 min 318 W/m 4,9 C 6,8 C 17,7 km/h (3 Bft)
12.03.2017 12:51 9,8 C 73 % 1018,6 hPa 0,0 l/m 4,9 km/h (1 Bft) O-NO 59 3 min 432 W/m 5,2 C 9,8 C 16,1 km/h (3 Bft)
12.03.2017 12:54 9,9 C 70 % 1018,8 hPa 0,0 l/m 10,7 km/h (2 Bft) SO 144 3 min 425 W/m 4,7 C 7,1 C 20,9 km/h (4 Bft)
12.03.2017 12:57 10,0 C 71 % 1018,7 hPa 0,0 l/m 9,8 km/h (2 Bft) O-NO 61 3 min 513 W/m 5,0 C 7,7 C 27,4 km/h (5 Bft)
12.03.2017 13:00 10,0 C 68 % 1018,7 hPa 0,0 l/m 12,9 km/h (3 Bft) SO 140 3 min 489 W/m 4,4 C 6,1 C 22,5 km/h (4 Bft)
12.03.2017 13:03 10,3 C 71 % 1018,7 hPa 0,0 l/m 8,1 km/h (2 Bft) S 178 3 min 566 W/m 5,3 C 9,1 C 19,3 km/h (3 Bft)
12.03.2017 13:06 10,5 C 67 % 1018,6 hPa 0,0 l/m 13,7 km/h (3 Bft) SO 128 3 min 570 W/m 4,6 C 6,3 C 30,6 km/h (5 Bft)
12.03.2017 13:09 10,5 C 69 % 1018,5 hPa 0,0 l/m 9,5 km/h (2 Bft) O-SO 115 3 min 522 W/m 5,1 C 8,4 C 20,9 km/h (4 Bft)
12.03.2017 13:12 11,0 C 67 % 1018,5 hPa 0,0 l/m 11,5 km/h (2 Bft) O-NO 72 3 min 529 W/m 5,1 C 7,9 C 30,6 km/h (5 Bft)
12.03.2017 13:15 11,1 C 65 % 1018,4 hPa 0,0 l/m 10,2 km/h (2 Bft) O-SO 107 3 min 615 W/m 4,8 C 8,7 C 19,3 km/h (3 Bft)
12.03.2017 13:18 11,3 C 65 % 1018,5 hPa 0,0 l/m 8,5 km/h (2 Bft) S-SO 155 3 min 573 W/m 5,0 C 9,9 C 19,3 km/h (3 Bft)
12.03.2017 13:21 11,3 C 64 % 1018,4 hPa 0,0 l/m 10,4 km/h (2 Bft) O 100 3 min 473 W/m 4,7 C 8,8 C 19,3 km/h (3 Bft)
12.03.2017 13:24 11,5 C 64 % 1018,5 hPa 0,0 l/m 6,4 km/h (2 Bft) SO 137 3 min 468 W/m 4,9 C 11,5 C 19,3 km/h (3 Bft)
12.03.2017 13:27 11,6 C 64 % 1018,5 hPa 0,0 l/m 7,8 km/h (2 Bft) O-SO 119 3 min 345 W/m 5,0 C 10,7 C 16,1 km/h (3 Bft)
12.03.2017 13:30 11,2 C 66 % 1018,5 hPa 0,0 l/m 6,0 km/h (2 Bft) S-SO 157 3 min 316 W/m 5,1 C 11,2 C 16,1 km/h (3 Bft)
12.03.2017 13:33 11,1 C 68 % 1018,5 hPa 0,0 l/m 9,4 km/h (2 Bft) O 83 3 min 329 W/m 5,4 C 9,1 C 24,1 km/h (4 Bft)
12.03.2017 13:36 10,9 C 66 % 1018,4 hPa 0,0 l/m 9,0 km/h (2 Bft) NO 44 3 min 336 W/m 4,8 C 9,2 C 16,1 km/h (3 Bft)
12.03.2017 13:39 10,7 C 66 % 1018,4 hPa 0,0 l/m 5,9 km/h (2 Bft) O-NO 74 3 min 322 W/m 4,6 C 10,7 C 14,5 km/h (3 Bft)
12.03.2017 13:42 10,8 C 66 % 1018,4 hPa 0,0 l/m 10,9 km/h (2 Bft) SO 128 3 min 287 W/m 4,7 C 8,0 C 25,7 km/h (4 Bft)
12.03.2017 13:45 10,6 C 67 % 1018,3 hPa 0,0 l/m 8,7 km/h (2 Bft) W-SW 242 3 min 287 W/m 4,7 C 9,0 C 22,5 km/h (4 Bft)
12.03.2017 13:48 10,6 C 68 % 1018,3 hPa 0,0 l/m 7,4 km/h (2 Bft) O-SO 120 3 min 301 W/m 4,9 C 9,9 C 14,5 km/h (3 Bft)
12.03.2017 13:51 10,7 C 67 % 1018,3 hPa 0,0 l/m 5,5 km/h (2 Bft) SO 134 3 min 287 W/m 4,8 C 10,7 C 19,3 km/h (3 Bft)
12.03.2017 13:54 10,6 C 68 % 1018,3 hPa 0,0 l/m 7,1 km/h (2 Bft) SO 128 3 min 288 W/m 4,9 C 10,1 C 16,1 km/h (3 Bft)
12.03.2017 13:57 10,4 C 65 % 1018,3 hPa 0,0 l/m 8,9 km/h (2 Bft) O 98 0 min 265 W/m 4,1 C 8,7 C 19,3 km/h (3 Bft)
12.03.2017 14:00 10,3 C 67 % 1018,2 hPa 0,0 l/m 8,1 km/h (2 Bft) O 101 0 min 251 W/m 4,4 C 9,1 C 16,1 km/h (3 Bft)
12.03.2017 14:03 10,3 C 67 % 1018,3 hPa 0,0 l/m 9,7 km/h (2 Bft) NO 40 0 min 253 W/m 4,4 C 8,1 C 20,9 km/h (4 Bft)
12.03.2017 14:06 10,4 C 71 % 1018,3 hPa 0,0 l/m 5,1 km/h (1 Bft) N 360 0 min 258 W/m 5,4 C 10,4 C 14,5 km/h (3 Bft)
12.03.2017 14:09 10,4 C 69 % 1018,3 hPa 0,0 l/m 7,9 km/h (2 Bft) NO 44 0 min 251 W/m 5,0 C 9,3 C 17,7 km/h (3 Bft)
12.03.2017 14:12 10,3 C 68 % 1018,3 hPa 0,0 l/m 11,0 km/h (2 Bft) O-SO 115 0 min 250 W/m 4,7 C 7,4 C 19,3 km/h (3 Bft)
12.03.2017 14:15 10,3 C 68 % 1018,2 hPa 0,0 l/m 7,1 km/h (2 Bft) O-SO 123 3 min 288 W/m 4,7 C 9,8 C 20,9 km/h (4 Bft)
12.03.2017 14:18 10,3 C 67 % 1018,2 hPa 0,0 l/m 8,5 km/h (2 Bft) S-SO 165 0 min 260 W/m 4,4 C 8,8 C 16,1 km/h (3 Bft)
12.03.2017 14:21 10,4 C 68 % 1018,2 hPa 0,0 l/m 5,7 km/h (2 Bft) SO 132 0 min 255 W/m 4,8 C 10,4 C 16,1 km/h (3 Bft)
12.03.2017 14:24 10,6 C 68 % 1018,2 hPa 0,0 l/m 5,5 km/h (2 Bft) O-SO 109 0 min 239 W/m 4,9 C 10,6 C 9,7 km/h (2 Bft)
12.03.2017 14:27 10,5 C 66 % 1018,3 hPa 0,0 l/m 7,3 km/h (2 Bft) SO 134 0 min 234 W/m 4,4 C 9,9 C 16,1 km/h (3 Bft)
12.03.2017 14:30 10,4 C 66 % 1018,3 hPa 0,0 l/m 7,4 km/h (2 Bft) O-NO 73 0 min 237 W/m 4,3 C 9,7 C 16,1 km/h (3 Bft)
12.03.2017 14:33 10,3 C 64 % 1018,2 hPa 0,0 l/m 7,9 km/h (2 Bft) SO 144 3 min 272 W/m 3,8 C 9,2 C 24,1 km/h (4 Bft)
12.03.2017 14:36 10,2 C 65 % 1018,2 hPa 0,0 l/m 12,4 km/h (2 Bft) S-SW 201 0 min 248 W/m 3,9 C 6,5 C 25,7 km/h (4 Bft)
12.03.2017 14:39 10,3 C 68 % 1018,1 hPa 0,0 l/m 6,6 km/h (2 Bft) O-SO 105 3 min 269 W/m 4,7 C 10,2 C 19,3 km/h (3 Bft)
12.03.2017 14:42 10,6 C 68 % 1018,0 hPa 0,0 l/m 4,9 km/h (1 Bft) O-NO 59 0 min 250 W/m 4,9 C 10,6 C 9,7 km/h (2 Bft)
12.03.2017 14:45 10,8 C 66 % 1018,0 hPa 0,0 l/m 7,7 km/h (2 Bft) S-SO 148 0 min 244 W/m 4,7 C 9,9 C 20,9 km/h (4 Bft)
12.03.2017 14:48 10,8 C 64 % 1018,0 hPa 0,0 l/m 7,5 km/h (2 Bft) S 183 3 min 339 W/m 4,3 C 10,0 C 16,1 km/h (3 Bft)
12.03.2017 14:51 10,7 C 66 % 1018,1 hPa 0,0 l/m 7,0 km/h (2 Bft) O 101 3 min 255 W/m 4,6 C 10,3 C 17,7 km/h (3 Bft)
12.03.2017 14:54 10,7 C 64 % 1018,0 hPa 0,0 l/m 6,3 km/h (2 Bft) SO 128 3 min 244 W/m 4,2 C 10,7 C 14,5 km/h (3 Bft)
12.03.2017 14:57 10,7 C 65 % 1018,0 hPa 0,0 l/m 5,7 km/h (2 Bft) O 98 3 min 285 W/m 4,4 C 10,7 C 14,5 km/h (3 Bft)
12.03.2017 15:00 10,8 C 64 % 1018,0 hPa 0,0 l/m 5,4 km/h (2 Bft) O-NO 71 3 min 255 W/m 4,3 C 10,8 C 12,9 km/h (3 Bft)
12.03.2017 15:03 10,8 C 65 % 1018,0 hPa 0,0 l/m 6,3 km/h (2 Bft) O-NO 77 3 min 283 W/m 4,5 C 10,8 C 12,9 km/h (3 Bft)
12.03.2017 15:06 10,7 C 65 % 1018,0 hPa 0,0 l/m 5,8 km/h (2 Bft) O 93 3 min 264 W/m 4,4 C 10,7 C 14,5 km/h (3 Bft)
12.03.2017 15:09 10,7 C 62 % 1018,0 hPa 0,0 l/m 8,1 km/h (2 Bft) NO 56 3 min 322 W/m 3,7 C 9,5 C 19,3 km/h (3 Bft)
12.03.2017 15:12 10,6 C 62 % 1018,0 hPa 0,0 l/m 10,0 km/h (2 Bft) S-SW 212 3 min 292 W/m 3,6 C 8,3 C 24,1 km/h (4 Bft)
12.03.2017 15:15 10,7 C 66 % 1018,0 hPa 0,0 l/m 7,8 km/h (2 Bft) O 95 0 min 220 W/m 4,6 C 9,7 C 16,1 km/h (3 Bft)
12.03.2017 15:18 10,7 C 64 % 1018,0 hPa 0,0 l/m 5,1 km/h (1 Bft) O-NO 62 0 min 178 W/m 4,2 C 10,7 C 16,1 km/h (3 Bft)
12.03.2017 15:21 10,7 C 62 % 1018,0 hPa 0,0 l/m 6,6 km/h (2 Bft) O 83 0 min 172 W/m 3,7 C 10,6 C 16,1 km/h (3 Bft)
12.03.2017 15:24 10,7 C 62 % 1018,0 hPa 0,0 l/m 8,9 km/h (2 Bft) NO 53 0 min 169 W/m 3,7 C 9,0 C 20,9 km/h (4 Bft)
12.03.2017 15:27 10,5 C 61 % 1017,9 hPa 0,0 l/m 6,3 km/h (2 Bft) O 81 0 min 165 W/m 3,3 C 10,5 C 12,9 km/h (3 Bft)
12.03.2017 15:30 10,6 C 62 % 1017,8 hPa 0,0 l/m 4,7 km/h (1 Bft) NO 56 0 min 162 W/m 3,6 C 10,6 C 11,3 km/h (2 Bft)
12.03.2017 15:33 10,7 C 62 % 1017,9 hPa 0,0 l/m 6,2 km/h (2 Bft) SO 126 0 min 162 W/m 3,7 C 10,7 C 17,7 km/h (3 Bft)
12.03.2017 15:36 10,8 C 63 % 1017,9 hPa 0,0 l/m 5,7 km/h (2 Bft) S 177 0 min 162 W/m 4,0 C 10,8 C 19,3 km/h (3 Bft)
12.03.2017 15:39 10,7 C 62 % 1017,9 hPa 0,0 l/m 4,7 km/h (1 Bft) N-NO 32 0 min 158 W/m 3,7 C 10,7 C 14,5 km/h (3 Bft)
12.03.2017 15:42 10,5 C 66 % 1017,9 hPa 0,0 l/m 7,0 km/h (2 Bft) SO 144 0 min 156 W/m 4,4 C 10,1 C 19,3 km/h (3 Bft)
12.03.2017 15:45 10,3 C 68 % 1017,9 hPa 0,0 l/m 7,2 km/h (2 Bft) NO 39 0 min 153 W/m 4,7 C 9,7 C 14,5 km/h (3 Bft)
12.03.2017 15:48 10,1 C 68 % 1017,9 hPa 0,0 l/m 8,1 km/h (2 Bft) O-NO 67 0 min 148 W/m 4,5 C 8,9 C 17,7 km/h (3 Bft)
12.03.2017 15:51 9,9 C 68 % 1017,8 hPa 0,0 l/m 6,9 km/h (2 Bft) NO 35 0 min 139 W/m 4,3 C 9,5 C 19,3 km/h (3 Bft)
12.03.2017 15:54 9,9 C 69 % 1017,8 hPa 0,0 l/m 7,4 km/h (2 Bft) N 5 0 min 135 W/m 4,5 C 9,2 C 19,3 km/h (3 Bft)
12.03.2017 15:57 9,7 C 68 % 1017,8 hPa 0,0 l/m 9,2 km/h (2 Bft) SO 138 0 min 127 W/m 4,1 C 7,7 C 16,1 km/h (3 Bft)
12.03.2017 16:00 9,6 C 68 % 1017,9 hPa 0,0 l/m 7,9 km/h (2 Bft) NO 40 0 min 120 W/m 4,0 C 8,5 C 19,3 km/h (3 Bft)
12.03.2017 16:03 9,5 C 69 % 1017,9 hPa 0,0 l/m 6,3 km/h (2 Bft) O-SO 103 0 min 116 W/m 4,1 C 9,5 C 14,5 km/h (3 Bft)
12.03.2017 16:06 9,5 C 69 % 1017,9 hPa 0,0 l/m 7,9 km/h (2 Bft) NO 52 0 min 109 W/m 4,1 C 8,4 C 22,5 km/h (4 Bft)
12.03.2017 16:09 9,4 C 67 % 1017,9 hPa 0,0 l/m 8,5 km/h (2 Bft) NO 51 0 min 104 W/m 3,6 C 7,9 C 16,1 km/h (3 Bft)
12.03.2017 16:12 9,4 C 67 % 1017,9 hPa 0,0 l/m 4,7 km/h (1 Bft) O-NO 65 0 min 100 W/m 3,6 C 9,4 C 14,5 km/h (3 Bft)
12.03.2017 16:15 9,4 C 67 % 1017,9 hPa 0,0 l/m 5,4 km/h (2 Bft) S 182 0 min 95 W/m 3,6 C 9,4 C 11,3 km/h (2 Bft)
12.03.2017 16:18 9,3 C 66 % 1017,9 hPa 0,0 l/m 7,6 km/h (2 Bft) O 82 0 min 88 W/m 3,3 C 8,4 C 17,7 km/h (3 Bft)
12.03.2017 16:21 9,2 C 66 % 1017,9 hPa 0,0 l/m 8,0 km/h (2 Bft) O 95 0 min 84 W/m 3,2 C 8,0 C 19,3 km/h (3 Bft)
12.03.2017 16:24 9,1 C 67 % 1017,9 hPa 0,0 l/m 6,8 km/h (2 Bft) O 94 0 min 79 W/m 3,3 C 8,8 C 19,3 km/h (3 Bft)
12.03.2017 16:27 9,1 C 67 % 1017,9 hPa 0,0 l/m 8,8 km/h (2 Bft) N-NW 337 0 min 77 W/m 3,3 C 7,4 C 20,9 km/h (4 Bft)
12.03.2017 16:30 8,9 C 68 % 1017,9 hPa 0,0 l/m 6,4 km/h (2 Bft) SO 138 0 min 77 W/m 3,3 C 8,9 C 17,7 km/h (3 Bft)
12.03.2017 16:33 8,9 C 68 % 1017,9 hPa 0,0 l/m 6,5 km/h (2 Bft) NO 42 0 min 77 W/m 3,3 C 8,9 C 17,7 km/h (3 Bft)
12.03.2017 16:36 8,8 C 68 % 1017,8 hPa 0,0 l/m 4,7 km/h (1 Bft) O-NO 63 0 min 77 W/m 3,2 C 8,8 C 12,9 km/h (3 Bft)
12.03.2017 16:39 8,8 C 69 % 1017,8 hPa 0,0 l/m 7,6 km/h (2 Bft) NO 46 0 min 81 W/m 3,4 C 7,9 C 16,1 km/h (3 Bft)
12.03.2017 16:42 8,7 C 68 % 1017,8 hPa 0,0 l/m 5,7 km/h (2 Bft) O 92 0 min 86 W/m 3,1 C 8,7 C 12,9 km/h (3 Bft)
12.03.2017 16:45 8,7 C 68 % 1017,8 hPa 0,0 l/m 6,9 km/h (2 Bft) NO 46 0 min 90 W/m 3,1 C 8,3 C 16,1 km/h (3 Bft)
12.03.2017 16:48 8,8 C 69 % 1017,8 hPa 0,0 l/m 6,8 km/h (2 Bft) N-NO 33 0 min 86 W/m 3,4 C 8,5 C 16,1 km/h (3 Bft)
12.03.2017 16:51 8,8 C 68 % 1017,8 hPa 0,0 l/m 5,9 km/h (2 Bft) O-SO 103 0 min 88 W/m 3,2 C 8,8 C 14,5 km/h (3 Bft)
12.03.2017 16:54 8,7 C 68 % 1017,9 hPa 0,0 l/m 8,6 km/h (2 Bft) O 95 0 min 84 W/m 3,1 C 7,1 C 27,4 km/h (5 Bft)
12.03.2017 16:57 8,7 C 69 % 1017,8 hPa 0,0 l/m 7,5 km/h (2 Bft) NO 49 0 min 81 W/m 3,3 C 7,9 C 16,1 km/h (3 Bft)
12.03.2017 17:00 8,7 C 67 % 1017,8 hPa 0,0 l/m 7,1 km/h (2 Bft) NO 38 0 min 76 W/m 2,9 C 8,2 C 16,1 km/h (3 Bft)
12.03.2017 17:03 8,6 C 68 % 1017,8 hPa 0,0 l/m 6,8 km/h (2 Bft) NO 47 0 min 69 W/m 3,0 C 8,3 C 14,5 km/h (3 Bft)
12.03.2017 17:06 8,6 C 68 % 1017,9 hPa 0,0 l/m 7,8 km/h (2 Bft) O 80 0 min 63 W/m 3,0 C 7,5 C 12,9 km/h (3 Bft)
12.03.2017 17:09 8,4 C 68 % 1017,9 hPa 0,0 l/m 9,3 km/h (2 Bft) O-NO 67 0 min 58 W/m 2,8 C 6,3 C 22,5 km/h (4 Bft)
12.03.2017 17:12 8,3 C 69 % 1018,0 hPa 0,0 l/m 7,5 km/h (2 Bft) O-NO 74 0 min 49 W/m 3,0 C 7,4 C 17,7 km/h (3 Bft)
12.03.2017 17:15 8,3 C 68 % 1018,0 hPa 0,0 l/m 8,4 km/h (2 Bft) O-NO 66 0 min 40 W/m 2,7 C 6,8 C 17,7 km/h (3 Bft)
12.03.2017 17:18 8,2 C 69 % 1018,0 hPa 0,0 l/m 6,5 km/h (2 Bft) NO 36 0 min 35 W/m 2,9 C 8,1 C 12,9 km/h (3 Bft)
12.03.2017 17:21 8,1 C 70 % 1018,1 hPa 0,0 l/m 5,8 km/h (2 Bft) O-NO 62 0 min 30 W/m 3,0 C 8,1 C 12,9 km/h (3 Bft)
12.03.2017 17:24 7,9 C 70 % 1018,1 hPa 0,0 l/m 5,6 km/h (2 Bft) O 84 0 min 25 W/m 2,8 C 7,9 C 11,3 km/h (2 Bft)
12.03.2017 17:27 7,8 C 71 % 1018,1 hPa 0,0 l/m 5,9 km/h (2 Bft) NO 35 0 min 23 W/m 2,9 C 7,8 C 14,5 km/h (3 Bft)
12.03.2017 17:30 7,7 C 70 % 1018,1 hPa 0,0 l/m 8,2 km/h (2 Bft) O-NO 58 0 min 21 W/m 2,6 C 6,3 C 16,1 km/h (3 Bft)
12.03.2017 17:33 7,6 C 71 % 1018,1 hPa 0,0 l/m 5,1 km/h (1 Bft) O-NO 72 0 min 19 W/m 2,7 C 7,6 C 19,3 km/h (3 Bft)
12.03.2017 17:36 7,5 C 72 % 1018,1 hPa 0,0 l/m 5,1 km/h (1 Bft) SO 130 0 min 19 W/m 2,8 C 7,5 C 11,3 km/h (2 Bft)
12.03.2017 17:39 7,4 C 71 % 1018,1 hPa 0,0 l/m 5,6 km/h (2 Bft) N-NO 13 0 min 19 W/m 2,5 C 7,4 C 16,1 km/h (3 Bft)
12.03.2017 17:42 7,3 C 71 % 1018,2 hPa 0,0 l/m 5,6 km/h (2 Bft) O 98 0 min 18 W/m 2,4 C 7,3 C 11,3 km/h (2 Bft)
12.03.2017 17:45 7,3 C 71 % 1018,2 hPa 0,0 l/m 5,4 km/h (2 Bft) O-NO 78 0 min 16 W/m 2,4 C 7,3 C 14,5 km/h (3 Bft)
12.03.2017 17:48 7,2 C 71 % 1018,3 hPa 0,0 l/m 4,1 km/h (1 Bft) O-NO 63 0 min 14 W/m 2,3 C 7,2 C 9,7 km/h (2 Bft)
12.03.2017 17:51 7,2 C 71 % 1018,3 hPa 0,0 l/m 7,4 km/h (2 Bft) O 93 0 min 14 W/m 2,3 C 6,4 C 19,3 km/h (3 Bft)
12.03.2017 17:54 7,2 C 71 % 1018,4 hPa 0,0 l/m 6,1 km/h (2 Bft) O 82 0 min 12 W/m 2,3 C 7,2 C 17,7 km/h (3 Bft)
12.03.2017 17:57 7,1 C 71 % 1018,4 hPa 0,0 l/m 6,2 km/h (2 Bft) O 81 0 min 11 W/m 2,2 C 7,1 C 14,5 km/h (3 Bft)
12.03.2017 18:00 7,1 C 72 % 1018,5 hPa 0,0 l/m 5,1 km/h (1 Bft) O-SO 113 0 min 11 W/m 2,4 C 7,1 C 11,3 km/h (2 Bft)
12.03.2017 18:03 7,0 C 72 % 1018,5 hPa 0,0 l/m 6,7 km/h (2 Bft) O-NO 63 0 min 9 W/m 2,3 C 6,8 C 12,9 km/h (3 Bft)
12.03.2017 18:06 6,9 C 73 % 1018,5 hPa 0,0 l/m 5,4 km/h (2 Bft) NO 43 0 min 7 W/m 2,4 C 6,9 C 11,3 km/h (2 Bft)
12.03.2017 18:09 6,9 C 73 % 1018,6 hPa 0,0 l/m 6,5 km/h (2 Bft) NO 50 0 min 5 W/m 2,4 C 6,8 C 12,9 km/h (3 Bft)
12.03.2017 18:12 6,8 C 74 % 1018,5 hPa 0,0 l/m 4,5 km/h (1 Bft) NO 45 0 min 5 W/m 2,5 C 6,8 C 8,0 km/h (2 Bft)
12.03.2017 18:15 6,7 C 74 % 1018,5 hPa 0,0 l/m 4,8 km/h (1 Bft) O 86 0 min 0 W/m 2,4 C 6,7 C 11,3 km/h (2 Bft)
12.03.2017 18:18 6,6 C 75 % 1018,6 hPa 0,0 l/m 6,0 km/h (2 Bft) N-NO 24 0 min 0 W/m 2,5 C 6,6 C 11,3 km/h (2 Bft)
12.03.2017 18:21 6,6 C 75 % 1018,7 hPa 0,0 l/m 6,6 km/h (2 Bft) O-SO 105 0 min 0 W/m 2,5 C 6,5 C 12,9 km/h (3 Bft)
12.03.2017 18:24 6,5 C 75 % 1018,7 hPa 0,0 l/m 5,5 km/h (2 Bft) NO 35 0 min 0 W/m 2,4 C 6,5 C 12,9 km/h (3 Bft)
12.03.2017 18:27 6,4 C 75 % 1018,7 hPa 0,0 l/m 4,1 km/h (1 Bft) N-NO 23 0 min 0 W/m 2,3 C 6,4 C 9,7 km/h (2 Bft)
12.03.2017 18:30 6,4 C 75 % 1018,8 hPa 0,0 l/m 5,0 km/h (1 Bft) O-NO 73 0 min 0 W/m 2,3 C 6,4 C 9,7 km/h (2 Bft)
12.03.2017 18:33 6,4 C 74 % 1018,8 hPa 0,0 l/m 4,8 km/h (1 Bft) O-NO 65 0 min 0 W/m 2,1 C 6,4 C 11,3 km/h (2 Bft)
12.03.2017 18:36 6,4 C 74 % 1018,8 hPa 0,0 l/m 5,6 km/h (2 Bft) O-SO 103 0 min 0 W/m 2,1 C 6,4 C 11,3 km/h (2 Bft)
12.03.2017 18:39 6,4 C 74 % 1018,9 hPa 0,0 l/m 5,0 km/h (1 Bft) NO 37 0 min 0 W/m 2,1 C 6,4 C 12,9 km/h (3 Bft)
12.03.2017 18:42 6,4 C 74 % 1018,8 hPa 0,0 l/m 5,5 km/h (2 Bft) O-NO 58 0 min 0 W/m 2,1 C 6,4 C 11,3 km/h (2 Bft)
12.03.2017 18:45 6,4 C 74 % 1018,9 hPa 0,0 l/m 3,8 km/h (1 Bft) O-SO 109 0 min 0 W/m 2,1 C 6,4 C 6,4 km/h (2 Bft)
12.03.2017 18:48 6,4 C 74 % 1018,9 hPa 0,0 l/m 5,5 km/h (2 Bft) NO 41 0 min 0 W/m 2,1 C 6,4 C 12,9 km/h (3 Bft)
12.03.2017 18:51 6,4 C 74 % 1018,9 hPa 0,0 l/m 4,6 km/h (1 Bft) O 92 0 min 0 W/m 2,1 C 6,4 C 9,7 km/h (2 Bft)
12.03.2017 18:54 6,4 C 74 % 1018,9 hPa 0,0 l/m 5,6 km/h (2 Bft) O-NO 69 0 min 0 W/m 2,1 C 6,4 C 14,5 km/h (3 Bft)
12.03.2017 18:57 6,3 C 74 % 1018,9 hPa 0,0 l/m 8,3 km/h (2 Bft) NO 49 0 min 0 W/m 2,0 C 4,7 C 17,7 km/h (3 Bft)
12.03.2017 19:00 6,3 C 74 % 1018,9 hPa 0,0 l/m 4,7 km/h (1 Bft) O 82 0 min 0 W/m 2,0 C 6,3 C 9,7 km/h (2 Bft)
12.03.2017 19:03 6,3 C 74 % 1019,0 hPa 0,0 l/m 4,6 km/h (1 Bft) O-NO 70 0 min 0 W/m 2,0 C 6,3 C 8,0 km/h (2 Bft)
12.03.2017 19:06 6,3 C 75 % 1019,1 hPa 0,0 l/m 3,6 km/h (1 Bft) O 88 0 min 0 W/m 2,2 C 6,3 C 8,0 km/h (2 Bft)
12.03.2017 19:09 6,2 C 75 % 1019,0 hPa 0,0 l/m 5,3 km/h (1 Bft) O-NO 69 0 min 0 W/m 2,1 C 6,2 C 17,7 km/h (3 Bft)
12.03.2017 19:12 6,2 C 75 % 1019,1 hPa 0,0 l/m 5,9 km/h (2 Bft) S-SO 157 0 min 0 W/m 2,1 C 6,2 C 12,9 km/h (3 Bft)
12.03.2017 19:15 6,1 C 76 % 1019,0 hPa 0,0 l/m 6,4 km/h (2 Bft) O-SO 118 0 min 0 W/m 2,2 C 6,1 C 14,5 km/h (3 Bft)
12.03.2017 19:18 6,1 C 76 % 1019,1 hPa 0,0 l/m 5,8 km/h (2 Bft) O-SO 121 0 min 0 W/m 2,2 C 6,1 C 19,3 km/h (3 Bft)
12.03.2017 19:21 6,1 C 76 % 1019,1 hPa 0,0 l/m 6,2 km/h (2 Bft) N 10 0 min 0 W/m 2,2 C 6,1 C 14,5 km/h (3 Bft)
12.03.2017 19:24 6,0 C 76 % 1019,2 hPa 0,0 l/m 5,9 km/h (2 Bft) O-NO 78 0 min 0 W/m 2,1 C 6,0 C 14,5 km/h (3 Bft)
12.03.2017 19:27 6,0 C 77 % 1019,2 hPa 0,0 l/m 5,6 km/h (2 Bft) NO 51 0 min 0 W/m 2,3 C 6,0 C 12,9 km/h (3 Bft)
12.03.2017 19:30 5,9 C 77 % 1019,2 hPa 0,0 l/m 7,8 km/h (2 Bft) N-NW 342 0 min 0 W/m 2,2 C 4,7 C 16,1 km/h (3 Bft)
12.03.2017 19:33 6,0 C 77 % 1019,2 hPa 0,0 l/m 5,2 km/h (1 Bft) SO 130 0 min 0 W/m 2,3 C 6,0 C 11,3 km/h (2 Bft)
12.03.2017 19:36 5,9 C 77 % 1019,2 hPa 0,0 l/m 5,3 km/h (1 Bft) N-NO 28 0 min 0 W/m 2,2 C 5,9 C 17,7 km/h (3 Bft)
12.03.2017 19:39 5,9 C 78 % 1019,2 hPa 0,0 l/m 5,4 km/h (2 Bft) NO 35 0 min 0 W/m 2,4 C 5,9 C 17,7 km/h (3 Bft)
12.03.2017 19:42 5,9 C 77 % 1019,2 hPa 0,0 l/m 8,4 km/h (2 Bft) O 84 0 min 0 W/m 2,2 C 4,2 C 20,9 km/h (4 Bft)
12.03.2017 19:45 5,9 C 77 % 1019,2 hPa 0,0 l/m 6,7 km/h (2 Bft) O-SO 106 0 min 0 W/m 2,2 C 5,7 C 12,9 km/h (3 Bft)
12.03.2017 19:48 5,9 C 77 % 1019,2 hPa 0,0 l/m 6,9 km/h (2 Bft) O 96 0 min 0 W/m 2,2 C 5,5 C 16,1 km/h (3 Bft)
12.03.2017 19:51 5,9 C 77 % 1019,2 hPa 0,0 l/m 5,4 km/h (2 Bft) O-SO 115 0 min 0 W/m 2,2 C 5,9 C 12,9 km/h (3 Bft)
12.03.2017 19:54 5,9 C 77 % 1019,3 hPa 0,0 l/m 5,6 km/h (2 Bft) N-NO 13 0 min 0 W/m 2,2 C 5,9 C 12,9 km/h (3 Bft)
12.03.2017 19:57 5,9 C 77 % 1019,3 hPa 0,0 l/m 5,5 km/h (2 Bft) O-NO 71 0 min 0 W/m 2,2 C 5,9 C 16,1 km/h (3 Bft)
12.03.2017 20:00 5,9 C 77 % 1019,3 hPa 0,0 l/m 5,7 km/h (2 Bft) O-SO 105 0 min 0 W/m 2,2 C 5,9 C 16,1 km/h (3 Bft)
12.03.2017 20:03 5,8 C 77 % 1019,3 hPa 0,0 l/m 5,1 km/h (1 Bft) O 86 0 min 0 W/m 2,1 C 5,8 C 11,3 km/h (2 Bft)
12.03.2017 20:06 5,8 C 77 % 1019,3 hPa 0,0 l/m 6,0 km/h (2 Bft) O-NO 73 0 min 0 W/m 2,1 C 5,8 C 19,3 km/h (3 Bft)
12.03.2017 20:09 5,7 C 77 % 1019,4 hPa 0,0 l/m 6,0 km/h (2 Bft) SO 139 0 min 0 W/m 2,0 C 5,7 C 14,5 km/h (3 Bft)
12.03.2017 20:12 5,7 C 77 % 1019,4 hPa 0,0 l/m 5,9 km/h (2 Bft) NO 38 0 min 0 W/m 2,0 C 5,7 C 12,9 km/h (3 Bft)
12.03.2017 20:15 5,7 C 77 % 1019,5 hPa 0,0 l/m 5,0 km/h (1 Bft) O 98 0 min 0 W/m 2,0 C 5,7 C 9,7 km/h (2 Bft)
12.03.2017 20:18 5,7 C 77 % 1019,6 hPa 0,0 l/m 6,1 km/h (2 Bft) S-SO 162 0 min 0 W/m 2,0 C 5,7 C 12,9 km/h (3 Bft)
12.03.2017 20:21 5,6 C 78 % 1019,7 hPa 0,0 l/m 5,4 km/h (2 Bft) SO 139 0 min 0 W/m 2,1 C 5,6 C 16,1 km/h (3 Bft)
12.03.2017 20:24 5,6 C 77 % 1019,7 hPa 0,0 l/m 5,1 km/h (1 Bft) O 88 0 min 0 W/m 1,9 C 5,6 C 14,5 km/h (3 Bft)
12.03.2017 20:27 5,5 C 77 % 1019,7 hPa 0,0 l/m 4,8 km/h (1 Bft) S-SO 168 0 min 0 W/m 1,8 C 5,5 C 12,9 km/h (3 Bft)
12.03.2017 20:30 5,4 C 77 % 1019,7 hPa 0,0 l/m 3,3 km/h (1 Bft) O 90 0 min 0 W/m 1,7 C 5,4 C 8,0 km/h (2 Bft)
12.03.2017 20:33 5,3 C 78 % 1019,7 hPa 0,0 l/m 5,4 km/h (2 Bft) O 97 0 min 0 W/m 1,8 C 5,3 C 11,3 km/h (2 Bft)
12.03.2017 20:36 5,3 C 78 % 1019,7 hPa 0,0 l/m 5,8 km/h (2 Bft) NO 56 0 min 0 W/m 1,8 C 5,3 C 14,5 km/h (3 Bft)
12.03.2017 20:39 5,3 C 78 % 1019,7 hPa 0,0 l/m 5,0 km/h (1 Bft) SO 134 0 min 0 W/m 1,8 C 5,3 C 12,9 km/h (3 Bft)
12.03.2017 20:42 5,2 C 78 % 1019,7 hPa 0,0 l/m 4,2 km/h (1 Bft) O 101 0 min 0 W/m 1,7 C 5,2 C 12,9 km/h (3 Bft)
12.03.2017 20:45 5,3 C 78 % 1019,8 hPa 0,0 l/m 6,9 km/h (2 Bft) O-SO 121 0 min 0 W/m 1,8 C 4,9 C 16,1 km/h (3 Bft)
12.03.2017 20:48 5,3 C 78 % 1019,8 hPa 0,0 l/m 5,9 km/h (2 Bft) SO 132 0 min 0 W/m 1,8 C 5,3 C 17,7 km/h (3 Bft)
12.03.2017 20:51 5,3 C 78 % 1019,8 hPa 0,0 l/m 4,7 km/h (1 Bft) SO 142 0 min 0 W/m 1,8 C 5,3 C 11,3 km/h (2 Bft)
12.03.2017 20:54 5,2 C 78 % 1019,9 hPa 0,0 l/m 5,2 km/h (1 Bft) SO 132 0 min 0 W/m 1,7 C 5,2 C 12,9 km/h (3 Bft)
12.03.2017 20:57 5,2 C 78 % 1019,9 hPa 0,0 l/m 4,9 km/h (1 Bft) SO 144 0 min 0 W/m 1,7 C 5,2 C 22,5 km/h (4 Bft)
12.03.2017 21:00 5,2 C 78 % 1019,9 hPa 0,0 l/m 5,3 km/h (1 Bft) SO 134 0 min 0 W/m 1,7 C 5,2 C 11,3 km/h (2 Bft)
12.03.2017 21:03 5,2 C 78 % 1019,9 hPa 0,0 l/m 4,8 km/h (1 Bft) SO 132 0 min 0 W/m 1,7 C 5,2 C 11,3 km/h (2 Bft)
12.03.2017 21:06 5,2 C 78 % 1019,9 hPa 0,0 l/m 6,0 km/h (2 Bft) O 86 0 min 0 W/m 1,7 C 5,2 C 14,5 km/h (3 Bft)
12.03.2017 21:09 5,2 C 78 % 1020,0 hPa 0,0 l/m 5,4 km/h (2 Bft) NO 40 0 min 0 W/m 1,7 C 5,2 C 14,5 km/h (3 Bft)
12.03.2017 21:12 5,2 C 78 % 1020,0 hPa 0,0 l/m 4,1 km/h (1 Bft) O 82 0 min 0 W/m 1,7 C 5,2 C 14,5 km/h (3 Bft)
12.03.2017 21:15 5,1 C 79 % 1020,0 hPa 0,0 l/m 4,7 km/h (1 Bft) O 87 0 min 0 W/m 1,8 C 5,1 C 8,0 km/h (2 Bft)
12.03.2017 21:18 5,1 C 79 % 1020,0 hPa 0,0 l/m 4,6 km/h (1 Bft) O 93 0 min 0 W/m 1,8 C 5,1 C 12,9 km/h (3 Bft)
12.03.2017 21:21 5,1 C 79 % 1020,1 hPa 0,0 l/m 4,4 km/h (1 Bft) NO 36 0 min 0 W/m 1,8 C 5,1 C 16,1 km/h (3 Bft)
12.03.2017 21:24 5,0 C 79 % 1020,0 hPa 0,0 l/m 4,1 km/h (1 Bft) O 85 0 min 0 W/m 1,7 C 5,0 C 11,3 km/h (2 Bft)
12.03.2017 21:27 5,0 C 79 % 1020,0 hPa 0,0 l/m 4,8 km/h (1 Bft) SO 128 0 min 0 W/m 1,7 C 5,0 C 11,3 km/h (2 Bft)
12.03.2017 21:30 5,0 C 79 % 1020,0 hPa 0,0 l/m 6,5 km/h (2 Bft) N-NO 16 0 min 0 W/m 1,7 C 4,9 C 17,7 km/h (3 Bft)
12.03.2017 21:33 5,0 C 79 % 1020,1 hPa 0,0 l/m 5,5 km/h (2 Bft) O-SO 113 0 min 0 W/m 1,7 C 5,0 C 14,5 km/h (3 Bft)
12.03.2017 21:36 5,0 C 79 % 1020,1 hPa 0,0 l/m 4,5 km/h (1 Bft) O-NO 78 0 min 0 W/m 1,7 C 5,0 C 9,7 km/h (2 Bft)
12.03.2017 21:39 5,0 C 79 % 1020,3 hPa 0,0 l/m 6,1 km/h (2 Bft) O-NO 71 0 min 0 W/m 1,7 C 5,0 C 12,9 km/h (3 Bft)
12.03.2017 21:42 4,9 C 79 % 1020,2 hPa 0,0 l/m 3,5 km/h (1 Bft) NO 36 0 min 0 W/m 1,6 C 4,9 C 8,0 km/h (2 Bft)
12.03.2017 21:45 4,9 C 80 % 1020,2 hPa 0,0 l/m 3,8 km/h (1 Bft) SO 134 0 min 0 W/m 1,7 C 4,9 C 9,7 km/h (2 Bft)
12.03.2017 21:48 4,8 C 80 % 1020,2 hPa 0,0 l/m 5,8 km/h (2 Bft) O-SO 105 0 min 0 W/m 1,6 C 4,8 C 16,1 km/h (3 Bft)
12.03.2017 21:51 4,8 C 80 % 1020,3 hPa 0,0 l/m 4,0 km/h (1 Bft) O-NO 76 0 min 0 W/m 1,6 C 4,8 C 6,4 km/h (2 Bft)
12.03.2017 21:54 4,8 C 81 % 1020,2 hPa 0,0 l/m 4,9 km/h (1 Bft) O 90 0 min 0 W/m 1,8 C 4,8 C 11,3 km/h (2 Bft)
12.03.2017 21:57 4,7 C 81 % 1020,2 hPa 0,0 l/m 2,9 km/h (1 Bft) O-NO 63 0 min 0 W/m 1,7 C 4,7 C 6,4 km/h (2 Bft)
12.03.2017 22:00 4,7 C 82 % 1020,3 hPa 0,0 l/m 5,1 km/h (1 Bft) O-NO 76 0 min 0 W/m 1,9 C 4,7 C 9,7 km/h (2 Bft)
12.03.2017 22:03 4,7 C 82 % 1020,2 hPa 0,0 l/m 4,5 km/h (1 Bft) O-SO 116 0 min 0 W/m 1,9 C 4,7 C 14,5 km/h (3 Bft)
12.03.2017 22:06 4,6 C 82 % 1020,2 hPa 0,0 l/m 5,2 km/h (1 Bft) O 101 0 min 0 W/m 1,8 C 4,6 C 14,5 km/h (3 Bft)
12.03.2017 22:09 4,6 C 82 % 1020,2 hPa 0,0 l/m 4,3 km/h (1 Bft) O-SO 109 0 min 0 W/m 1,8 C 4,6 C 11,3 km/h (2 Bft)
12.03.2017 22:12 4,6 C 82 % 1020,1 hPa 0,0 l/m 5,8 km/h (2 Bft) O-NO 64 0 min 0 W/m 1,8 C 4,6 C 16,1 km/h (3 Bft)
12.03.2017 22:15 4,7 C 82 % 1020,1 hPa 0,0 l/m 3,7 km/h (1 Bft) N-NW 346 0 min 0 W/m 1,9 C 4,7 C 9,7 km/h (2 Bft)
12.03.2017 22:18 4,7 C 82 % 1020,2 hPa 0,0 l/m 7,0 km/h (2 Bft) O-NO 70 0 min 0 W/m 1,9 C 4,2 C 17,7 km/h (3 Bft)
12.03.2017 22:21 4,7 C 82 % 1020,2 hPa 0,0 l/m 5,0 km/h (1 Bft) SO 146 0 min 0 W/m 1,9 C 4,7 C 12,9 km/h (3 Bft)
12.03.2017 22:24 4,6 C 82 % 1020,2 hPa 0,0 l/m 4,1 km/h (1 Bft) SO 132 0 min 0 W/m 1,8 C 4,6 C 9,7 km/h (2 Bft)
12.03.2017 22:27 4,6 C 82 % 1020,3 hPa 0,0 l/m 5,5 km/h (2 Bft) S-SO 150 0 min 0 W/m 1,8 C 4,6 C 14,5 km/h (3 Bft)
12.03.2017 22:30 4,7 C 82 % 1020,1 hPa 0,0 l/m 5,9 km/h (2 Bft) SO 126 0 min 0 W/m 1,9 C 4,7 C 16,1 km/h (3 Bft)
12.03.2017 22:33 4,7 C 82 % 1020,2 hPa 0,0 l/m 8,7 km/h (2 Bft) O 97 0 min 0 W/m 1,9 C 2,7 C 19,3 km/h (3 Bft)
12.03.2017 22:36 4,7 C 82 % 1020,1 hPa 0,0 l/m 4,0 km/h (1 Bft) O 101 0 min 0 W/m 1,9 C 4,7 C 9,7 km/h (2 Bft)
12.03.2017 22:39 4,6 C 82 % 1020,1 hPa 0,0 l/m 6,7 km/h (2 Bft) S-SO 153 0 min 0 W/m 1,8 C 4,3 C 20,9 km/h (4 Bft)
12.03.2017 22:42 4,6 C 82 % 1020,2 hPa 0,0 l/m 6,3 km/h (2 Bft) O 88 0 min 0 W/m 1,8 C 4,6 C 14,5 km/h (3 Bft)
12.03.2017 22:45 4,6 C 82 % 1020,3 hPa 0,0 l/m 5,6 km/h (2 Bft) SO 131 0 min 0 W/m 1,8 C 4,6 C 20,9 km/h (4 Bft)
12.03.2017 22:48 4,6 C 81 % 1020,2 hPa 0,0 l/m 6,2 km/h (2 Bft) SO 129 0 min 0 W/m 1,6 C 4,6 C 14,5 km/h (3 Bft)
12.03.2017 22:51 4,6 C 81 % 1020,3 hPa 0,0 l/m 7,1 km/h (2 Bft) SO 134 0 min 0 W/m 1,6 C 4,0 C 14,5 km/h (3 Bft)
12.03.2017 22:54 4,5 C 81 % 1020,3 hPa 0,0 l/m 6,9 km/h (2 Bft) O-SO 103 0 min 0 W/m 1,5 C 4,1 C 14,5 km/h (3 Bft)
12.03.2017 22:57 4,5 C 81 % 1020,3 hPa 0,0 l/m 6,1 km/h (2 Bft) SO 144 0 min 0 W/m 1,5 C 4,5 C 14,5 km/h (3 Bft)
12.03.2017 23:00 4,4 C 81 % 1020,4 hPa 0,0 l/m 6,1 km/h (2 Bft) SO 138 0 min 0 W/m 1,4 C 4,4 C 16,1 km/h (3 Bft)
12.03.2017 23:03 4,4 C 81 % 1020,3 hPa 0,0 l/m 7,1 km/h (2 Bft) NO 50 0 min 0 W/m 1,4 C 3,8 C 14,5 km/h (3 Bft)
12.03.2017 23:06 4,4 C 81 % 1020,3 hPa 0,0 l/m 6,8 km/h (2 Bft) O 98 0 min 0 W/m 1,4 C 4,1 C 19,3 km/h (3 Bft)
12.03.2017 23:09 4,4 C 81 % 1020,3 hPa 0,0 l/m 6,0 km/h (2 Bft) SO 129 0 min 0 W/m 1,4 C 4,4 C 14,5 km/h (3 Bft)
12.03.2017 23:12 4,4 C 81 % 1020,3 hPa 0,0 l/m 9,3 km/h (2 Bft) O-SO 103 0 min 0 W/m 1,4 C 1,9 C 17,7 km/h (3 Bft)
12.03.2017 23:15 4,4 C 81 % 1020,2 hPa 0,0 l/m 7,3 km/h (2 Bft) O-SO 113 0 min 0 W/m 1,4 C 3,6 C 19,3 km/h (3 Bft)
12.03.2017 23:18 4,4 C 80 % 1020,3 hPa 0,0 l/m 9,5 km/h (2 Bft) O-SO 107 0 min 0 W/m 1,3 C 1,8 C 17,7 km/h (3 Bft)
12.03.2017 23:21 4,4 C 80 % 1020,3 hPa 0,0 l/m 6,6 km/h (2 Bft) O-SO 122 0 min 0 W/m 1,3 C 4,2 C 12,9 km/h (3 Bft)
12.03.2017 23:24 4,3 C 81 % 1020,3 hPa 0,0 l/m 5,3 km/h (1 Bft) O-SO 120 0 min 0 W/m 1,3 C 4,3 C 11,3 km/h (2 Bft)
12.03.2017 23:27 4,3 C 80 % 1020,3 hPa 0,0 l/m 5,2 km/h (1 Bft) O 86 0 min 0 W/m 1,2 C 4,3 C 12,9 km/h (3 Bft)
12.03.2017 23:30 4,3 C 80 % 1020,3 hPa 0,0 l/m 9,6 km/h (2 Bft) S-SO 151 0 min 0 W/m 1,2 C 1,6 C 20,9 km/h (4 Bft)
12.03.2017 23:33 4,3 C 80 % 1020,4 hPa 0,0 l/m 7,2 km/h (2 Bft) O 84 0 min 0 W/m 1,2 C 3,6 C 17,7 km/h (3 Bft)
12.03.2017 23:36 4,2 C 80 % 1020,4 hPa 0,0 l/m 7,5 km/h (2 Bft) O-SO 113 0 min 0 W/m 1,1 C 3,2 C 16,1 km/h (3 Bft)
12.03.2017 23:39 4,2 C 81 % 1020,5 hPa 0,0 l/m 5,9 km/h (2 Bft) S-SO 149 0 min 0 W/m 1,2 C 4,2 C 12,9 km/h (3 Bft)
12.03.2017 23:42 4,1 C 81 % 1020,5 hPa 0,0 l/m 8,0 km/h (2 Bft) SO 142 0 min 0 W/m 1,1 C 2,7 C 17,7 km/h (3 Bft)
12.03.2017 23:45 4,1 C 81 % 1020,5 hPa 0,0 l/m 6,3 km/h (2 Bft) O-SO 123 0 min 0 W/m 1,1 C 4,1 C 12,9 km/h (3 Bft)
12.03.2017 23:48 4,1 C 81 % 1020,5 hPa 0,0 l/m 5,1 km/h (1 Bft) S-SO 157 0 min 0 W/m 1,1 C 4,1 C 12,9 km/h (3 Bft)
12.03.2017 23:51 4,1 C 81 % 1020,6 hPa 0,0 l/m 9,0 km/h (2 Bft) O-SO 109 0 min 0 W/m 1,1 C 1,8 C 17,7 km/h (3 Bft)
12.03.2017 23:54 4,1 C 81 % 1020,6 hPa 0,0 l/m 6,8 km/h (2 Bft) S-SO 159 0 min 0 W/m 1,1 C 3,7 C 14,5 km/h (3 Bft)
12.03.2017 23:57 4,1 C 81 % 1020,6 hPa 0,0 l/m 6,4 km/h (2 Bft) S-SO 162 0 min 0 W/m 1,1 C 4,1 C 14,5 km/h (3 Bft)
_ Min-Zeit 06:57 15:27 15:30 - 01:09 - - - - 23:36 08:30 01:30
Minimum _ 2,6 C 61 % 1017,8 hPa - 2,2 km/h (1 Bft) - - - - 1,1 C 0,2 C 3,2 km/h (1 Bft)
_ Max-Zeit 13:27 02:24 00:18 00:00 13:06 - - 12:30 13:15 12:36 13:24 13:06
Maximum _ 11,6 C 94 % 1021,2 hPa 0,0 l/m 13,7 km/h
SO (3 Bft)
- - 3 min 615 W/m 6,2 C 11,5 C 30,6 km/h
S-SO (5 Bft)
Durchschnitt _ 5,7 C 82 % 1019,5 hPa #0,0 l/m 6,2 km/h (2 Bft) O - #2:00 h 169 W/m 2,8 C 5,2 C 14,7 km/h (3 Bft)
2017 Cux-Wetter.de -Die Nutzung der Wetterdaten nur mit ausdrcklicher Genehmigung